Time,TemperatureF,DewpointF,PressureIn,WindDirection,WindDirectionDegrees,WindSpeedMPH,WindSpeedGustMPH,Humidity,HourlyPrecipIn,Conditions,Clouds,dailyrainin,SoftwareType,DateUTC
2013-05-25 00:00:00,46.4,40.9,30.16,South,169,0.0,0.0,81,0.00,,,0.00,Wunderground v.1.15,2013-05-25 04:00:00,
2013-05-25 00:01:00,46.2,40.7,30.16,South,169,0.0,0.0,81,0.00,,,0.00,Wunderground v.1.15,2013-05-25 04:01:00,
2013-05-25 00:02:00,46.2,40.7,30.16,South,169,0.0,0.0,81,0.00,,,0.00,Wunderground v.1.15,2013-05-25 04:02:00,
2013-05-25 00:03:00,46.2,40.7,30.16,South,169,0.0,0.0,81,0.00,,,0.00,Wunderground v.1.15,2013-05-25 04:03:00,
2013-05-25 00:04:00,46.2,40.4,30.16,South,169,0.0,0.0,80,0.00,,,0.00,Wunderground v.1.15,2013-05-25 04:04:00,
2013-05-25 00:07:00,46.1,40.6,30.16,South,169,0.0,0.0,81,0.00,,,0.00,Wunderground v.1.15,2013-05-25 04:07:00,
2013-05-25 00:10:00,46.0,40.5,30.16,South,169,0.0,0.0,81,0.00,,,0.00,Wunderground v.1.15,2013-05-25 04:10:00,
2013-05-25 00:13:00,45.7,40.5,30.16,South,169,0.0,0.0,82,0.00,,,0.00,Wunderground v.1.15,2013-05-25 04:13:00,
2013-05-25 00:14:00,45.7,40.5,30.16,South,169,0.0,0.0,82,0.00,,,0.00,Wunderground v.1.15,2013-05-25 04:14:00,
2013-05-25 00:15:00,45.7,40.5,30.16,South,169,0.0,0.0,82,0.00,,,0.00,Wunderground v.1.15,2013-05-25 04:15:00,
2013-05-25 00:20:00,45.4,40.5,30.16,South,169,0.0,0.0,83,0.00,,,0.00,Wunderground v.1.15,2013-05-25 04:20:00,
2013-05-25 00:22:00,45.2,40.3,30.16,South,169,0.0,0.0,83,0.00,,,0.00,Wunderground v.1.15,2013-05-25 04:22:00,
2013-05-25 00:23:00,45.2,40.3,30.16,South,169,0.0,0.0,83,0.00,,,0.00,Wunderground v.1.15,2013-05-25 04:23:00,
2013-05-25 00:24:00,45.1,40.2,30.16,South,169,0.0,0.0,83,0.00,,,0.00,Wunderground v.1.15,2013-05-25 04:24:00,
2013-05-25 00:27:00,45.1,40.6,30.16,South,169,0.0,0.0,84,0.00,,,0.00,Wunderground v.1.15,2013-05-25 04:27:00,
2013-05-25 00:28:00,45.1,40.6,30.16,South,169,0.0,0.0,84,0.00,,,0.00,Wunderground v.1.15,2013-05-25 04:28:00,
2013-05-25 00:31:00,44.9,40.4,30.16,South,169,0.0,0.0,84,0.00,,,0.00,Wunderground v.1.15,2013-05-25 04:31:00,
2013-05-25 00:32:00,44.9,40.4,30.16,South,169,0.0,0.0,84,0.00,,,0.00,Wunderground v.1.15,2013-05-25 04:32:00,
2013-05-25 00:35:00,44.6,40.4,30.16,South,169,0.0,0.0,85,0.00,,,0.00,Wunderground v.1.15,2013-05-25 04:35:00,
2013-05-25 00:36:00,44.6,40.4,30.16,South,169,0.0,0.0,85,0.00,,,0.00,Wunderground v.1.15,2013-05-25 04:36:00,
2013-05-25 00:37:00,44.6,40.4,30.16,South,169,0.0,0.0,85,0.00,,,0.00,Wunderground v.1.15,2013-05-25 04:37:00,
2013-05-25 00:41:00,44.5,40.6,30.16,South,169,0.0,0.0,86,0.00,,,0.00,Wunderground v.1.15,2013-05-25 04:41:00,
2013-05-25 00:43:00,44.3,40.4,30.16,South,169,0.0,0.0,86,0.00,,,0.00,Wunderground v.1.15,2013-05-25 04:43:00,
2013-05-25 00:44:00,44.2,40.3,30.16,South,169,0.0,0.0,86,0.00,,,0.00,Wunderground v.1.15,2013-05-25 04:44:00,
2013-05-25 00:46:00,44.2,40.3,30.17,South,169,0.0,0.0,86,0.00,,,0.00,Wunderground v.1.15,2013-05-25 04:46:00,
2013-05-25 00:48:00,44.1,40.2,30.17,South,169,0.0,0.0,86,0.00,,,0.00,Wunderground v.1.15,2013-05-25 04:48:00,
2013-05-25 00:52:00,44.1,40.2,30.17,South,169,0.0,0.0,86,0.00,,,0.00,Wunderground v.1.15,2013-05-25 04:52:00,
2013-05-25 00:54:00,43.9,40.3,30.17,South,169,0.0,0.0,87,0.00,,,0.00,Wunderground v.1.15,2013-05-25 04:54:00,
2013-05-25 00:55:00,43.9,40.0,30.17,South,169,0.0,0.0,86,0.00,,,0.00,Wunderground v.1.15,2013-05-25 04:55:00,
2013-05-25 00:59:00,43.8,40.2,30.17,South,169,0.0,0.0,87,0.00,,,0.00,Wunderground v.1.15,2013-05-25 04:59:00,
2013-05-25 01:01:00,43.8,40.2,30.17,South,169,0.0,0.0,87,0.00,,,0.00,Wunderground v.1.15,2013-05-25 05:01:00,
2013-05-25 01:03:00,43.6,40.0,30.17,South,169,0.0,0.0,87,0.00,,,0.00,Wunderground v.1.15,2013-05-25 05:03:00,
2013-05-25 01:05:00,43.6,40.0,30.17,South,169,0.0,0.0,87,0.00,,,0.00,Wunderground v.1.15,2013-05-25 05:05:00,
2013-05-25 01:06:00,43.5,39.6,30.17,South,169,0.0,0.0,86,0.00,,,0.00,Wunderground v.1.15,2013-05-25 05:06:00,
2013-05-25 01:09:00,43.5,39.9,30.17,South,169,0.0,0.0,87,0.00,,,0.00,Wunderground v.1.15,2013-05-25 05:09:00,
2013-05-25 01:13:00,43.3,39.7,30.17,South,169,0.0,0.0,87,0.00,,,0.00,Wunderground v.1.15,2013-05-25 05:13:00,
2013-05-25 01:15:00,43.3,39.7,30.17,South,169,0.0,0.0,87,0.00,,,0.00,Wunderground v.1.15,2013-05-25 05:15:00,
2013-05-25 01:16:00,43.3,39.7,30.17,South,169,0.0,0.0,87,0.00,,,0.00,Wunderground v.1.15,2013-05-25 05:16:00,
2013-05-25 01:18:00,43.3,39.7,30.17,South,169,0.0,0.0,87,0.00,,,0.00,Wunderground v.1.15,2013-05-25 05:18:00,
2013-05-25 01:20:00,43.3,40.0,30.17,South,169,0.0,0.0,88,0.00,,,0.00,Wunderground v.1.15,2013-05-25 05:20:00,
2013-05-25 01:23:00,43.3,40.0,30.17,South,169,0.0,0.0,88,0.00,,,0.00,Wunderground v.1.15,2013-05-25 05:23:00,
2013-05-25 01:24:00,43.2,39.9,30.17,South,169,0.0,0.0,88,0.00,,,0.00,Wunderground v.1.15,2013-05-25 05:24:00,
2013-05-25 01:27:00,43.2,39.9,30.17,South,169,0.0,0.0,88,0.00,,,0.00,Wunderground v.1.15,2013-05-25 05:27:00,
2013-05-25 01:29:00,43.2,39.9,30.17,South,169,0.0,0.0,88,0.00,,,0.00,Wunderground v.1.15,2013-05-25 05:29:00,
2013-05-25 01:30:00,43.2,39.9,30.17,South,169,0.0,0.0,88,0.00,,,0.00,Wunderground v.1.15,2013-05-25 05:30:00,
2013-05-25 01:32:00,43.3,40.3,30.17,South,169,0.0,1.0,89,0.00,,,0.00,Wunderground v.1.15,2013-05-25 05:32:00,
2013-05-25 01:33:00,43.3,40.3,30.17,South,169,0.0,1.0,89,0.00,,,0.00,Wunderground v.1.15,2013-05-25 05:33:00,
2013-05-25 01:35:00,43.5,40.5,30.17,South,169,0.0,1.0,89,0.00,,,0.00,Wunderground v.1.15,2013-05-25 05:35:00,
2013-05-25 01:37:00,43.5,40.5,30.17,South,169,0.0,1.0,89,0.00,,,0.00,Wunderground v.1.15,2013-05-25 05:37:00,
2013-05-25 01:38:00,43.5,40.5,30.17,South,169,0.0,1.0,89,0.00,,,0.00,Wunderground v.1.15,2013-05-25 05:38:00,
2013-05-25 01:39:00,43.5,40.5,30.17,South,169,0.0,1.0,89,0.00,,,0.00,Wunderground v.1.15,2013-05-25 05:39:00,
2013-05-25 01:40:00,43.5,40.5,30.17,South,169,0.0,1.0,89,0.00,,,0.00,Wunderground v.1.15,2013-05-25 05:40:00,
2013-05-25 01:44:00,43.5,40.5,30.17,South,169,0.0,1.0,89,0.00,,,0.00,Wunderground v.1.15,2013-05-25 05:44:00,
2013-05-25 01:46:00,43.6,40.6,30.16,South,169,0.0,1.0,89,0.00,,,0.00,Wunderground v.1.15,2013-05-25 05:46:00,
2013-05-25 01:48:00,43.6,40.6,30.16,South,169,0.0,1.0,89,0.00,,,0.00,Wunderground v.1.15,2013-05-25 05:48:00,
2013-05-25 01:49:00,43.6,40.6,30.16,South,169,0.0,1.0,89,0.00,,,0.00,Wunderground v.1.15,2013-05-25 05:49:00,
2013-05-25 01:50:00,43.6,40.6,30.16,South,169,0.0,1.0,89,0.00,,,0.00,Wunderground v.1.15,2013-05-25 05:50:00,
2013-05-25 01:51:00,43.6,40.6,30.16,South,169,0.0,1.0,89,0.00,,,0.00,Wunderground v.1.15,2013-05-25 05:51:00,
2013-05-25 01:52:00,43.6,40.6,30.16,South,169,0.0,1.0,89,0.00,,,0.00,Wunderground v.1.15,2013-05-25 05:52:00,
2013-05-25 01:55:00,43.8,40.8,30.16,South,169,0.0,1.0,89,0.00,,,0.00,Wunderground v.1.15,2013-05-25 05:55:00,
2013-05-25 01:56:00,43.8,41.1,30.16,South,169,0.0,1.0,90,0.00,,,0.00,Wunderground v.1.15,2013-05-25 05:56:00,
2013-05-25 01:57:00,43.8,41.1,30.16,South,169,0.0,1.0,90,0.00,,,0.00,Wunderground v.1.15,2013-05-25 05:57:00,
2013-05-25 02:01:00,43.8,41.1,30.16,South,169,0.0,1.0,90,0.00,,,0.00,Wunderground v.1.15,2013-05-25 06:01:00,
2013-05-25 02:03:00,43.8,41.1,30.17,South,169,0.0,1.0,90,0.00,,,0.00,Wunderground v.1.15,2013-05-25 06:03:00,
2013-05-25 02:04:00,43.8,41.1,30.17,South,169,0.0,1.0,90,0.00,,,0.00,Wunderground v.1.15,2013-05-25 06:04:00,
2013-05-25 02:07:00,43.9,40.9,30.17,South,169,0.0,1.0,89,0.00,,,0.00,Wunderground v.1.15,2013-05-25 06:07:00,
2013-05-25 02:08:00,43.9,40.9,30.17,South,169,0.0,1.0,89,0.00,,,0.00,Wunderground v.1.15,2013-05-25 06:08:00,
2013-05-25 02:12:00,43.9,40.9,30.17,South,169,0.0,1.0,89,0.00,,,0.00,Wunderground v.1.15,2013-05-25 06:12:00,
2013-05-25 02:14:00,44.1,41.1,30.17,South,169,0.0,1.0,89,0.00,,,0.00,Wunderground v.1.15,2013-05-25 06:14:00,
2013-05-25 02:16:00,44.1,41.1,30.17,South,169,0.0,1.0,89,0.00,,,0.00,Wunderground v.1.15,2013-05-25 06:16:00,
2013-05-25 02:18:00,44.1,41.1,30.17,South,169,0.0,1.0,89,0.00,,,0.00,Wunderground v.1.15,2013-05-25 06:18:00,
2013-05-25 02:22:00,44.1,41.1,30.17,South,169,0.0,1.0,89,0.00,,,0.00,Wunderground v.1.15,2013-05-25 06:22:00,
2013-05-25 02:23:00,44.1,41.1,30.17,South,169,0.0,1.0,89,0.00,,,0.00,Wunderground v.1.15,2013-05-25 06:23:00,
2013-05-25 02:24:00,44.2,41.2,30.17,South,169,0.0,1.0,89,0.00,,,0.00,Wunderground v.1.15,2013-05-25 06:24:00,
2013-05-25 02:27:00,44.2,41.2,30.17,South,169,0.0,1.0,89,0.00,,,0.00,Wunderground v.1.15,2013-05-25 06:27:00,
2013-05-25 02:28:00,44.2,41.2,30.17,South,169,0.0,1.0,89,0.00,,,0.00,Wunderground v.1.15,2013-05-25 06:28:00,
2013-05-25 02:30:00,44.2,41.2,30.17,South,169,0.0,1.0,89,0.00,,,0.00,Wunderground v.1.15,2013-05-25 06:30:00,
2013-05-25 02:33:00,44.2,41.2,30.16,South,169,0.0,2.0,89,0.00,,,0.00,Wunderground v.1.15,2013-05-25 06:33:00,
2013-05-25 02:34:00,44.2,41.2,30.16,South,169,0.0,2.0,89,0.00,,,0.00,Wunderground v.1.15,2013-05-25 06:34:00,
2013-05-25 02:35:00,44.3,41.3,30.16,South,169,0.0,2.0,89,0.00,,,0.00,Wunderground v.1.15,2013-05-25 06:35:00,
2013-05-25 02:36:00,44.3,41.0,30.16,North,0,0.0,2.0,88,0.00,,,0.00,Wunderground v.1.15,2013-05-25 06:36:00,
2013-05-25 02:39:00,44.5,41.2,30.16,NW,320,1.0,3.0,88,0.00,,,0.00,Wunderground v.1.15,2013-05-25 06:39:00,
2013-05-25 02:40:00,44.5,41.2,30.16,NW,323,1.0,1.0,88,0.00,,,0.00,Wunderground v.1.15,2013-05-25 06:40:00,
2013-05-25 02:43:00,44.8,41.2,30.16,NNE,25,1.0,2.0,87,0.00,,,0.00,Wunderground v.1.15,2013-05-25 06:43:00,
2013-05-25 02:45:00,44.9,40.7,30.16,NNE,28,1.0,2.0,85,0.00,,,0.00,Wunderground v.1.15,2013-05-25 06:45:00,
2013-05-25 02:46:00,44.9,40.7,30.16,NNE,28,1.0,2.0,85,0.00,,,0.00,Wunderground v.1.15,2013-05-25 06:46:00,
2013-05-25 02:49:00,45.1,40.2,30.16,NNE,30,0.0,2.0,83,0.00,,,0.00,Wunderground v.1.15,2013-05-25 06:49:00,
2013-05-25 02:52:00,45.5,40.3,30.16,NNE,13,0.0,1.0,82,0.00,,,0.00,Wunderground v.1.15,2013-05-25 06:52:00,
2013-05-25 02:53:00,45.7,40.2,30.16,NNE,14,0.0,1.0,81,0.00,,,0.00,Wunderground v.1.15,2013-05-25 06:53:00,
2013-05-25 02:54:00,45.8,39.0,30.16,SSW,208,0.0,1.0,77,0.00,,,0.00,Wunderground v.1.15,2013-05-25 06:54:00,
2013-05-25 02:57:00,46.8,38.9,30.16,North,4,1.0,2.0,74,0.00,,,0.00,Wunderground v.1.15,2013-05-25 06:57:00,
2013-05-25 03:00:00,47.3,38.7,30.16,North,10,1.0,1.0,72,0.00,,,0.00,Wunderground v.1.15,2013-05-25 07:00:00,
2013-05-25 03:01:00,47.4,38.8,30.16,North,10,1.0,1.0,72,0.00,,,0.00,Wunderground v.1.15,2013-05-25 07:01:00,
2013-05-25 03:02:00,47.4,38.8,30.16,North,10,1.0,1.0,72,0.00,,,0.00,Wunderground v.1.15,2013-05-25 07:02:00,
2013-05-25 03:04:00,47.6,39.4,30.16,North,11,0.0,1.0,73,0.00,,,0.00,Wunderground v.1.15,2013-05-25 07:04:00,
2013-05-25 03:06:00,47.7,39.1,30.16,NE,40,0.0,1.0,72,0.00,,,0.00,Wunderground v.1.15,2013-05-25 07:06:00,
2013-05-25 03:08:00,47.9,39.3,30.16,NE,38,0.0,1.0,72,0.00,,,0.00,Wunderground v.1.15,2013-05-25 07:08:00,
2013-05-25 03:11:00,47.9,39.7,30.16,NE,38,0.0,1.0,73,0.00,,,0.00,Wunderground v.1.15,2013-05-25 07:11:00,
2013-05-25 03:13:00,47.9,39.3,30.16,NE,38,0.0,1.0,72,0.00,,,0.00,Wunderground v.1.15,2013-05-25 07:13:00,
2013-05-25 03:14:00,47.9,39.3,30.16,NE,38,0.0,1.0,72,0.00,,,0.00,Wunderground v.1.15,2013-05-25 07:14:00,
2013-05-25 03:16:00,47.9,39.3,30.14,NE,38,0.0,1.0,72,0.00,,,0.00,Wunderground v.1.15,2013-05-25 07:16:00,
2013-05-25 03:18:00,47.7,39.1,30.14,NE,38,0.0,1.0,72,0.00,,,0.00,Wunderground v.1.15,2013-05-25 07:18:00,
2013-05-25 03:21:00,47.7,38.8,30.14,NE,38,0.0,1.0,71,0.00,,,0.00,Wunderground v.1.15,2013-05-25 07:21:00,
2013-05-25 03:22:00,47.7,38.8,30.14,NE,38,0.0,1.0,71,0.00,,,0.00,Wunderground v.1.15,2013-05-25 07:22:00,
2013-05-25 03:23:00,47.7,38.8,30.14,NE,38,0.0,1.0,71,0.00,,,0.00,Wunderground v.1.15,2013-05-25 07:23:00,
2013-05-25 03:24:00,47.7,39.1,30.14,NE,38,0.0,1.0,72,0.00,,,0.00,Wunderground v.1.15,2013-05-25 07:24:00,
2013-05-25 03:26:00,47.6,38.3,30.14,NE,38,0.0,1.0,70,0.00,,,0.00,Wunderground v.1.15,2013-05-25 07:26:00,
2013-05-25 03:28:00,47.6,39.0,30.14,NE,41,0.0,1.0,72,0.00,,,0.00,Wunderground v.1.15,2013-05-25 07:28:00,
2013-05-25 03:29:00,47.6,39.4,30.14,NE,41,0.0,1.0,73,0.00,,,0.00,Wunderground v.1.15,2013-05-25 07:29:00,
2013-05-25 03:31:00,47.4,38.8,30.14,NE,41,0.0,1.0,72,0.00,,,0.00,Wunderground v.1.15,2013-05-25 07:31:00,
2013-05-25 03:32:00,47.4,38.8,30.16,NE,41,0.0,1.0,72,0.00,,,0.00,Wunderground v.1.15,2013-05-25 07:32:00,
2013-05-25 03:34:00,47.3,38.4,30.16,NE,41,0.0,1.0,71,0.00,,,0.00,Wunderground v.1.15,2013-05-25 07:34:00,
2013-05-25 03:36:00,47.3,38.4,30.16,East,80,0.0,1.0,71,0.00,,,0.00,Wunderground v.1.15,2013-05-25 07:36:00,
2013-05-25 03:37:00,47.1,38.2,30.16,ENE,68,0.0,1.0,71,0.00,,,0.00,Wunderground v.1.15,2013-05-25 07:37:00,
2013-05-25 03:40:00,47.1,38.5,30.16,ENE,66,0.0,1.0,72,0.00,,,0.00,Wunderground v.1.15,2013-05-25 07:40:00,
2013-05-25 03:42:00,47.0,37.7,30.16,East,86,0.0,1.0,70,0.00,,,0.00,Wunderground v.1.15,2013-05-25 07:42:00,
2013-05-25 03:44:00,47.0,38.1,30.16,East,86,0.0,1.0,71,0.00,,,0.00,Wunderground v.1.15,2013-05-25 07:44:00,
2013-05-25 03:45:00,47.0,38.1,30.16,East,86,0.0,1.0,71,0.00,,,0.00,Wunderground v.1.15,2013-05-25 07:45:00,
2013-05-25 03:46:00,47.0,38.1,30.16,East,86,0.0,1.0,71,0.00,,,0.00,Wunderground v.1.15,2013-05-25 07:46:00,
2013-05-25 03:47:00,47.0,38.1,30.16,East,86,0.0,1.0,71,0.00,,,0.00,Wunderground v.1.15,2013-05-25 07:47:00,
2013-05-25 03:49:00,46.8,38.2,30.16,SSW,200,0.0,1.0,72,0.00,,,0.00,Wunderground v.1.15,2013-05-25 07:49:00,
2013-05-25 03:51:00,46.8,37.9,30.16,ESE,103,0.0,1.0,71,0.00,,,0.00,Wunderground v.1.15,2013-05-25 07:51:00,
2013-05-25 03:53:00,46.8,37.9,30.16,WNW,282,0.0,1.0,71,0.00,,,0.00,Wunderground v.1.15,2013-05-25 07:53:00,
2013-05-25 03:54:00,47.0,37.7,30.16,NNW,336,0.0,1.0,70,0.00,,,0.00,Wunderground v.1.15,2013-05-25 07:54:00,
2013-05-25 03:57:00,47.1,37.4,30.16,SW,224,0.0,1.0,69,0.00,,,0.00,Wunderground v.1.15,2013-05-25 07:57:00,
2013-05-25 03:58:00,47.3,37.6,30.16,SW,224,0.0,1.0,69,0.00,,,0.00,Wunderground v.1.15,2013-05-25 07:58:00,
2013-05-25 03:59:00,47.3,37.6,30.16,SW,224,0.0,1.0,69,0.00,,,0.00,Wunderground v.1.15,2013-05-25 07:59:00,
2013-05-25 04:00:00,47.3,38.0,30.16,SW,224,0.0,1.0,70,0.00,,,0.00,Wunderground v.1.15,2013-05-25 08:00:00,
2013-05-25 04:02:00,47.3,38.0,30.16,SW,224,0.0,1.0,70,0.00,,,0.00,Wunderground v.1.15,2013-05-25 08:02:00,
2013-05-25 04:03:00,47.3,37.6,30.16,SW,224,0.0,1.0,69,0.00,,,0.00,Wunderground v.1.15,2013-05-25 08:03:00,
2013-05-25 04:08:00,47.3,38.4,30.16,SE,143,0.0,2.0,71,0.00,,,0.00,Wunderground v.1.15,2013-05-25 08:08:00,
2013-05-25 04:09:00,47.3,38.0,30.16,SSE,160,0.0,2.0,70,0.00,,,0.00,Wunderground v.1.15,2013-05-25 08:09:00,
2013-05-25 04:13:00,47.4,37.4,30.16,SE,141,0.0,1.0,68,0.00,,,0.00,Wunderground v.1.15,2013-05-25 08:13:00,
2013-05-25 04:14:00,47.4,38.5,30.16,SE,141,0.0,1.0,71,0.00,,,0.00,Wunderground v.1.15,2013-05-25 08:14:00,
2013-05-25 04:16:00,47.4,37.7,30.17,West,275,1.0,2.0,69,0.00,,,0.00,Wunderground v.1.15,2013-05-25 08:16:00,
2013-05-25 04:22:00,47.9,37.8,30.17,SSW,210,0.0,1.0,68,0.00,,,0.00,Wunderground v.1.15,2013-05-25 08:22:00,
2013-05-25 04:23:00,47.9,37.8,30.17,SW,217,0.0,1.0,68,0.00,,,0.00,Wunderground v.1.15,2013-05-25 08:23:00,
2013-05-25 04:25:00,47.9,38.2,30.17,East,82,0.0,1.0,69,0.00,,,0.00,Wunderground v.1.15,2013-05-25 08:25:00,
2013-05-25 04:26:00,47.9,37.5,30.17,ESE,106,0.0,1.0,67,0.00,,,0.00,Wunderground v.1.15,2013-05-25 08:26:00,
2013-05-25 04:29:00,48.5,37.3,30.17,East,89,0.0,2.0,65,0.00,,,0.00,Wunderground v.1.15,2013-05-25 08:29:00,
2013-05-25 04:33:00,48.8,36.8,30.16,East,85,0.0,1.0,63,0.00,,,0.00,Wunderground v.1.15,2013-05-25 08:33:00,
2013-05-25 04:34:00,48.9,36.0,30.16,East,97,0.0,1.0,61,0.00,,,0.00,Wunderground v.1.15,2013-05-25 08:34:00,
2013-05-25 04:37:00,49.2,35.9,30.16,NW,304,0.0,1.0,60,0.00,,,0.00,Wunderground v.1.15,2013-05-25 08:37:00,
2013-05-25 04:40:00,49.5,35.8,30.16,SSE,168,0.0,1.0,59,0.00,,,0.00,Wunderground v.1.15,2013-05-25 08:40:00,
2013-05-25 04:41:00,49.6,36.3,30.16,SSE,168,0.0,1.0,60,0.00,,,0.00,Wunderground v.1.15,2013-05-25 08:41:00,
2013-05-25 04:42:00,49.6,36.7,30.16,SSE,167,0.0,1.0,61,0.00,,,0.00,Wunderground v.1.15,2013-05-25 08:42:00,
2013-05-25 04:44:00,49.8,35.6,30.16,WSW,243,0.0,1.0,58,0.00,,,0.00,Wunderground v.1.15,2013-05-25 08:44:00,
2013-05-25 04:45:00,49.8,35.2,30.16,SW,223,0.0,3.0,57,0.00,,,0.00,Wunderground v.1.15,2013-05-25 08:45:00,
2013-05-25 04:47:00,50.1,35.4,30.16,NE,51,0.0,3.0,57,0.00,,,0.00,Wunderground v.1.15,2013-05-25 08:47:00,
2013-05-25 04:51:00,50.5,36.7,30.16,East,80,0.0,2.0,59,0.00,,,0.00,Wunderground v.1.15,2013-05-25 08:51:00,
2013-05-25 04:53:00,50.8,36.1,30.16,NE,55,1.0,6.0,57,0.00,,,0.00,Wunderground v.1.15,2013-05-25 08:53:00,
2013-05-25 04:54:00,50.8,35.7,30.16,NE,56,1.0,6.0,56,0.00,,,0.00,Wunderground v.1.15,2013-05-25 08:54:00,
2013-05-25 04:56:00,51.0,36.3,30.16,SE,140,1.0,6.0,57,0.00,,,0.00,Wunderground v.1.15,2013-05-25 08:56:00,
2013-05-25 04:57:00,51.0,36.3,30.16,SSW,199,1.0,6.0,57,0.00,,,0.00,Wunderground v.1.15,2013-05-25 08:57:00,
2013-05-25 04:59:00,51.0,35.8,30.16,SSW,200,1.0,6.0,56,0.00,,,0.00,Wunderground v.1.15,2013-05-25 08:59:00,
2013-05-25 05:00:00,51.1,34.5,30.16,NNE,31,1.0,6.0,53,0.00,,,0.00,Wunderground v.1.15,2013-05-25 09:00:00,
2013-05-25 05:04:00,51.4,36.2,30.15,SE,127,1.0,6.0,56,0.00,,,0.00,Wunderground v.1.15,2013-05-25 09:04:00,
2013-05-25 05:05:00,51.4,36.2,30.15,NE,37,1.0,6.0,56,0.00,,,0.00,Wunderground v.1.15,2013-05-25 09:05:00,
2013-05-25 05:07:00,51.4,35.8,30.15,ENE,61,1.0,6.0,55,0.00,,,0.00,Wunderground v.1.15,2013-05-25 09:07:00,
2013-05-25 05:08:00,51.4,36.2,30.15,North,353,1.0,6.0,56,0.00,,,0.00,Wunderground v.1.15,2013-05-25 09:08:00,
2013-05-25 05:10:00,51.4,35.8,30.15,NNE,20,1.0,1.0,55,0.00,,,0.00,Wunderground v.1.15,2013-05-25 09:10:00,
2013-05-25 05:13:00,51.3,35.7,30.15,NW,315,1.0,1.0,55,0.00,,,0.00,Wunderground v.1.15,2013-05-25 09:13:00,
2013-05-25 05:15:00,51.3,36.6,30.15,NW,315,1.0,1.0,57,0.00,,,0.00,Wunderground v.1.15,2013-05-25 09:15:00,
2013-05-25 05:16:00,51.1,35.9,30.16,West,268,1.0,1.0,56,0.00,,,0.00,Wunderground v.1.15,2013-05-25 09:16:00,
2013-05-25 05:17:00,51.1,36.4,30.16,NW,318,1.0,1.0,57,0.00,,,0.00,Wunderground v.1.15,2013-05-25 09:17:00,
2013-05-25 05:18:00,51.1,35.5,30.16,South,182,0.0,7.0,55,0.00,,,0.00,Wunderground v.1.15,2013-05-25 09:18:00,
2013-05-25 05:21:00,51.1,34.5,30.16,ENE,65,0.0,1.0,53,0.00,,,0.00,Wunderground v.1.15,2013-05-25 09:21:00,
2013-05-25 05:23:00,51.1,34.5,30.16,ESE,103,0.0,1.0,53,0.00,,,0.00,Wunderground v.1.15,2013-05-25 09:23:00,
2013-05-25 05:24:00,51.3,34.7,30.16,ESE,103,0.0,1.0,53,0.00,,,0.00,Wunderground v.1.15,2013-05-25 09:24:00,
2013-05-25 05:26:00,51.3,34.7,30.16,NNE,31,0.0,1.0,53,0.00,,,0.00,Wunderground v.1.15,2013-05-25 09:26:00,
2013-05-25 05:29:00,51.3,34.7,30.16,WSW,246,0.0,1.0,53,0.00,,,0.00,Wunderground v.1.15,2013-05-25 09:29:00,
2013-05-25 05:30:00,51.3,34.7,30.16,WSW,246,0.0,1.0,53,0.00,,,0.00,Wunderground v.1.15,2013-05-25 09:30:00,
2013-05-25 05:33:00,51.0,34.9,30.15,SSW,203,0.0,1.0,54,0.00,,,0.00,Wunderground v.1.15,2013-05-25 09:33:00,
2013-05-25 05:34:00,51.0,37.2,30.15,SE,138,1.0,2.0,59,0.00,,,0.00,Wunderground v.1.15,2013-05-25 09:34:00,
2013-05-25 05:36:00,50.8,36.5,30.15,WSW,257,1.0,2.0,58,0.00,,,0.00,Wunderground v.1.15,2013-05-25 09:36:00,
2013-05-25 05:38:00,50.7,34.2,30.15,NNE,27,1.0,2.0,53,0.00,,,0.00,Wunderground v.1.15,2013-05-25 09:38:00,
2013-05-25 05:39:00,50.7,34.2,30.15,SE,124,1.0,2.0,53,0.00,,,0.00,Wunderground v.1.15,2013-05-25 09:39:00,
2013-05-25 05:41:00,50.7,35.6,30.15,ESE,109,1.0,1.0,56,0.00,,,0.00,Wunderground v.1.15,2013-05-25 09:41:00,
2013-05-25 05:42:00,50.7,34.6,30.15,ENE,65,1.0,2.0,54,0.00,,,0.00,Wunderground v.1.15,2013-05-25 09:42:00,
2013-05-25 05:44:00,51.0,34.5,30.15,SE,133,1.0,2.0,53,0.00,,,0.00,Wunderground v.1.15,2013-05-25 09:44:00,
2013-05-25 05:46:00,51.0,34.0,30.15,SE,144,1.0,2.0,52,0.00,,,0.00,Wunderground v.1.15,2013-05-25 09:46:00,
2013-05-25 05:47:00,51.0,34.5,30.15,SE,144,1.0,2.0,53,0.00,,,0.00,Wunderground v.1.15,2013-05-25 09:47:00,
2013-05-25 05:49:00,51.0,34.9,30.15,SE,143,1.0,2.0,54,0.00,,,0.00,Wunderground v.1.15,2013-05-25 09:49:00,
2013-05-25 05:53:00,50.7,35.1,30.15,WSW,237,0.0,2.0,55,0.00,,,0.00,Wunderground v.1.15,2013-05-25 09:53:00,
2013-05-25 05:56:00,50.7,34.2,30.15,NNW,347,0.0,2.0,53,0.00,,,0.00,Wunderground v.1.15,2013-05-25 09:56:00,
2013-05-25 05:58:00,50.7,36.5,30.15,NNW,347,0.0,2.0,58,0.00,,,0.00,Wunderground v.1.15,2013-05-25 09:58:00,
2013-05-25 05:59:00,50.5,36.3,30.15,NNW,347,0.0,2.0,58,0.00,,,0.00,Wunderground v.1.15,2013-05-25 09:59:00,
2013-05-25 06:00:00,50.5,36.3,30.15,NNW,347,0.0,1.0,58,0.00,,,0.00,Wunderground v.1.15,2013-05-25 10:00:00,
2013-05-25 06:03:00,50.2,36.4,30.16,NNW,347,0.0,1.0,59,0.00,,,0.00,Wunderground v.1.15,2013-05-25 10:03:00,
2013-05-25 06:05:00,49.9,36.1,30.16,NNW,347,0.0,1.0,59,0.00,,,0.00,Wunderground v.1.15,2013-05-25 10:05:00,
2013-05-25 06:06:00,49.8,36.0,30.16,NW,308,0.0,1.0,59,0.00,,,0.00,Wunderground v.1.15,2013-05-25 10:06:00,
2013-05-25 06:07:00,49.6,36.3,30.16,WNW,284,0.0,1.0,60,0.00,,,0.00,Wunderground v.1.15,2013-05-25 10:07:00,
2013-05-25 06:11:00,49.4,35.7,30.16,SW,224,0.0,1.0,59,0.00,,,0.00,Wunderground v.1.15,2013-05-25 10:11:00,
2013-05-25 06:13:00,49.1,36.2,30.16,SW,224,0.0,1.0,61,0.00,,,0.00,Wunderground v.1.15,2013-05-25 10:13:00,
2013-05-25 06:15:00,48.9,36.4,30.16,SW,224,0.0,1.0,62,0.00,,,0.00,Wunderground v.1.15,2013-05-25 10:15:00,
2013-05-25 06:17:00,48.6,36.6,30.16,SW,230,0.0,1.0,63,0.00,,,0.00,Wunderground v.1.15,2013-05-25 10:17:00,
2013-05-25 06:18:00,48.5,37.3,30.16,SW,230,0.0,1.0,65,0.00,,,0.00,Wunderground v.1.15,2013-05-25 10:18:00,
2013-05-25 06:19:00,48.5,37.3,30.16,SW,230,0.0,1.0,65,0.00,,,0.00,Wunderground v.1.15,2013-05-25 10:19:00,
2013-05-25 06:20:00,48.3,37.1,30.16,SW,230,0.0,1.0,65,0.00,,,0.00,Wunderground v.1.15,2013-05-25 10:20:00,
2013-05-25 06:24:00,47.9,36.7,30.16,NW,305,0.0,2.0,65,0.00,,,0.00,Wunderground v.1.15,2013-05-25 10:24:00,
2013-05-25 06:25:00,47.9,37.1,30.16,NW,305,0.0,2.0,66,0.00,,,0.00,Wunderground v.1.15,2013-05-25 10:25:00,
2013-05-25 06:26:00,47.7,36.9,30.16,SW,224,0.0,2.0,66,0.00,,,0.00,Wunderground v.1.15,2013-05-25 10:26:00,
2013-05-25 06:27:00,47.7,37.3,30.16,SW,224,0.0,2.0,67,0.00,,,0.00,Wunderground v.1.15,2013-05-25 10:27:00,
2013-05-25 06:29:00,47.6,37.2,30.16,SW,224,0.0,2.0,67,0.00,,,0.00,Wunderground v.1.15,2013-05-25 10:29:00,
2013-05-25 06:32:00,47.3,36.9,30.17,SW,224,0.0,1.0,67,0.00,,,0.00,Wunderground v.1.15,2013-05-25 10:32:00,
2013-05-25 06:33:00,47.1,36.3,30.17,SW,224,0.0,1.0,66,0.00,,,0.00,Wunderground v.1.15,2013-05-25 10:33:00,
2013-05-25 06:35:00,47.1,36.7,30.17,SW,224,0.0,1.0,67,0.00,,,0.00,Wunderground v.1.15,2013-05-25 10:35:00,
2013-05-25 06:37:00,47.0,37.4,30.17,SW,224,0.0,1.0,69,0.00,,,0.00,Wunderground v.1.15,2013-05-25 10:37:00,
2013-05-25 06:38:00,46.8,37.2,30.17,SW,224,0.0,1.0,69,0.00,,,0.00,Wunderground v.1.15,2013-05-25 10:38:00,
2013-05-25 06:42:00,46.7,37.8,30.17,SW,224,0.0,1.0,71,0.00,,,0.00,Wunderground v.1.15,2013-05-25 10:42:00,
2013-05-25 06:44:00,46.5,38.3,30.17,SW,224,0.0,1.0,73,0.00,,,0.00,Wunderground v.1.15,2013-05-25 10:44:00,
2013-05-25 06:45:00,46.4,38.2,30.17,SW,224,0.0,1.0,73,0.00,,,0.00,Wunderground v.1.15,2013-05-25 10:45:00,
2013-05-25 06:46:00,46.4,37.9,30.18,SW,224,0.0,1.0,72,0.00,,,0.00,Wunderground v.1.15,2013-05-25 10:46:00,
2013-05-25 06:47:00,46.4,37.9,30.18,SW,224,0.0,1.0,72,0.00,,,0.00,Wunderground v.1.15,2013-05-25 10:47:00,
2013-05-25 06:49:00,46.2,38.4,30.18,SW,224,0.0,1.0,74,0.00,,,0.00,Wunderground v.1.15,2013-05-25 10:49:00,
2013-05-25 06:51:00,46.1,38.3,30.18,SW,224,0.0,1.0,74,0.00,,,0.00,Wunderground v.1.15,2013-05-25 10:51:00,
2013-05-25 06:53:00,46.1,37.6,30.18,SW,224,0.0,1.0,72,0.00,,,0.00,Wunderground v.1.15,2013-05-25 10:53:00,
2013-05-25 06:55:00,46.1,37.6,30.18,SW,224,0.0,1.0,72,0.00,,,0.00,Wunderground v.1.15,2013-05-25 10:55:00,
2013-05-25 06:56:00,46.1,37.9,30.18,SW,224,0.0,1.0,73,0.00,,,0.00,Wunderground v.1.15,2013-05-25 10:56:00,
2013-05-25 06:57:00,46.2,38.0,30.18,SW,224,0.0,1.0,73,0.00,,,0.00,Wunderground v.1.15,2013-05-25 10:57:00,
2013-05-25 06:59:00,46.2,38.4,30.18,SW,224,0.0,1.0,74,0.00,,,0.00,Wunderground v.1.15,2013-05-25 10:59:00,
2013-05-25 07:02:00,46.4,39.2,30.18,SW,224,0.0,1.0,76,0.00,,,0.00,Wunderground v.1.15,2013-05-25 11:02:00,
2013-05-25 07:04:00,46.4,38.9,30.18,SW,224,0.0,1.0,75,0.00,,,0.00,Wunderground v.1.15,2013-05-25 11:04:00,
2013-05-25 07:05:00,46.4,38.9,30.18,SW,224,0.0,1.0,75,0.00,,,0.00,Wunderground v.1.15,2013-05-25 11:05:00,
2013-05-25 07:07:00,46.4,39.2,30.18,SW,224,0.0,1.0,76,0.00,,,0.00,Wunderground v.1.15,2013-05-25 11:07:00,
2013-05-25 07:08:00,46.4,38.9,30.18,SW,224,0.0,1.0,75,0.00,,,0.00,Wunderground v.1.15,2013-05-25 11:08:00,
2013-05-25 07:09:00,46.4,38.6,30.18,SW,224,0.0,1.0,74,0.00,,,0.00,Wunderground v.1.15,2013-05-25 11:09:00,
2013-05-25 07:11:00,46.5,38.7,30.18,SW,224,0.0,1.0,74,0.00,,,0.00,Wunderground v.1.15,2013-05-25 11:11:00,
2013-05-25 07:14:00,46.5,39.3,30.18,SW,224,0.0,1.0,76,0.00,,,0.00,Wunderground v.1.15,2013-05-25 11:14:00,
2013-05-25 07:16:00,46.7,39.9,30.18,SW,224,0.0,1.0,77,0.00,,,0.00,Wunderground v.1.15,2013-05-25 11:16:00,
2013-05-25 07:18:00,46.7,40.2,30.18,SW,224,0.0,1.0,78,0.00,,,0.00,Wunderground v.1.15,2013-05-25 11:18:00,
2013-05-25 07:20:00,46.8,40.3,30.18,SW,224,0.0,1.0,78,0.00,,,0.00,Wunderground v.1.15,2013-05-25 11:20:00,
2013-05-25 07:22:00,47.0,40.8,30.18,SW,224,0.0,1.0,79,0.00,,,0.00,Wunderground v.1.15,2013-05-25 11:22:00,
2013-05-25 07:24:00,47.0,40.8,30.18,SW,224,0.0,1.0,79,0.00,,,0.00,Wunderground v.1.15,2013-05-25 11:24:00,
2013-05-25 07:25:00,47.1,41.2,30.18,SW,224,0.0,1.0,80,0.00,,,0.00,Wunderground v.1.15,2013-05-25 11:25:00,
2013-05-25 07:27:00,47.1,40.9,30.18,SW,224,0.0,1.0,79,0.00,,,0.00,Wunderground v.1.15,2013-05-25 11:27:00,
2013-05-25 07:29:00,47.3,41.4,30.18,SW,224,0.0,1.0,80,0.00,,,0.00,Wunderground v.1.15,2013-05-25 11:29:00,
2013-05-25 07:32:00,47.4,41.5,30.18,SW,224,0.0,1.0,80,0.00,,,0.00,Wunderground v.1.15,2013-05-25 11:32:00,
2013-05-25 07:34:00,47.6,41.7,30.18,SW,224,0.0,1.0,80,0.00,,,0.00,Wunderground v.1.15,2013-05-25 11:34:00,
2013-05-25 07:35:00,47.6,41.7,30.18,SW,224,0.0,1.0,80,0.00,,,0.00,Wunderground v.1.15,2013-05-25 11:35:00,
2013-05-25 07:37:00,47.6,41.4,30.18,SW,224,0.0,1.0,79,0.00,,,0.00,Wunderground v.1.15,2013-05-25 11:37:00,
2013-05-25 07:39:00,47.7,41.8,30.18,SW,224,0.0,1.0,80,0.00,,,0.00,Wunderground v.1.15,2013-05-25 11:39:00,
2013-05-25 07:40:00,47.9,42.3,30.18,SW,224,0.0,1.0,81,0.00,,,0.00,Wunderground v.1.15,2013-05-25 11:40:00,
2013-05-25 07:42:00,47.9,41.7,30.18,SW,224,0.0,1.0,79,0.00,,,0.00,Wunderground v.1.15,2013-05-25 11:42:00,
2013-05-25 07:43:00,48.0,41.5,30.18,SW,224,0.0,1.0,78,0.00,,,0.00,Wunderground v.1.15,2013-05-25 11:43:00,
2013-05-25 07:46:00,48.2,42.3,30.18,SW,224,0.0,1.0,80,0.00,,,0.00,Wunderground v.1.15,2013-05-25 11:46:00,
2013-05-25 07:47:00,48.3,42.7,30.19,SW,224,0.0,1.0,81,0.00,,,0.00,Wunderground v.1.15,2013-05-25 11:47:00,
2013-05-25 07:48:00,48.5,42.9,30.19,SW,224,0.0,1.0,81,0.00,,,0.00,Wunderground v.1.15,2013-05-25 11:48:00,
2013-05-25 07:52:00,48.6,43.0,30.19,SW,224,0.0,1.0,81,0.00,,,0.00,Wunderground v.1.15,2013-05-25 11:52:00,
2013-05-25 07:54:00,48.8,43.2,30.19,SW,224,0.0,1.0,81,0.00,,,0.00,Wunderground v.1.15,2013-05-25 11:54:00,
2013-05-25 07:56:00,48.9,43.6,30.19,SW,224,0.0,1.0,82,0.00,,,0.00,Wunderground v.1.15,2013-05-25 11:56:00,
2013-05-25 07:59:00,49.1,43.8,30.19,NW,312,0.0,1.0,82,0.00,,,0.00,Wunderground v.1.15,2013-05-25 11:59:00,
2013-05-25 08:00:00,49.1,43.8,30.19,NW,312,0.0,1.0,82,0.00,,,0.00,Wunderground v.1.15,2013-05-25 12:00:00,
2013-05-25 08:02:00,49.2,43.3,30.19,NW,312,0.0,1.0,80,0.00,,,0.00,Wunderground v.1.15,2013-05-25 12:02:00,
2013-05-25 08:04:00,49.4,43.2,30.19,NW,312,0.0,1.0,79,0.00,,,0.00,Wunderground v.1.15,2013-05-25 12:04:00,
2013-05-25 08:06:00,49.4,43.5,30.19,NW,312,0.0,1.0,80,0.00,,,0.00,Wunderground v.1.15,2013-05-25 12:06:00,
2013-05-25 08:07:00,49.5,43.3,30.19,NW,312,0.0,1.0,79,0.00,,,0.00,Wunderground v.1.15,2013-05-25 12:07:00,
2013-05-25 08:10:00,49.6,43.0,30.19,NW,311,0.0,1.0,78,0.00,,,0.00,Wunderground v.1.15,2013-05-25 12:10:00,
2013-05-25 08:11:00,49.8,43.2,30.19,NW,311,0.0,1.0,78,0.00,,,0.00,Wunderground v.1.15,2013-05-25 12:11:00,
2013-05-25 08:13:00,49.9,43.3,30.19,NW,311,0.0,1.0,78,0.00,,,0.00,Wunderground v.1.15,2013-05-25 12:13:00,
2013-05-25 08:14:00,50.1,43.8,30.19,NW,311,0.0,1.0,79,0.00,,,0.00,Wunderground v.1.15,2013-05-25 12:14:00,
2013-05-25 08:17:00,50.4,44.1,30.20,NW,311,0.0,1.0,79,0.00,,,0.00,Wunderground v.1.15,2013-05-25 12:17:00,
2013-05-25 08:18:00,50.4,43.8,30.20,NW,311,0.0,1.0,78,0.00,,,0.00,Wunderground v.1.15,2013-05-25 12:18:00,
2013-05-25 08:19:00,50.5,44.2,30.20,NW,311,0.0,1.0,79,0.00,,,0.00,Wunderground v.1.15,2013-05-25 12:19:00,
2013-05-25 08:23:00,50.8,44.5,30.20,NW,311,0.0,1.0,79,0.00,,,0.00,Wunderground v.1.15,2013-05-25 12:23:00,
2013-05-25 08:26:00,51.0,44.4,30.20,NW,311,0.0,1.0,78,0.00,,,0.00,Wunderground v.1.15,2013-05-25 12:26:00,
2013-05-25 08:30:00,51.3,44.0,30.20,NW,311,0.0,1.0,76,0.00,,,0.00,Wunderground v.1.15,2013-05-25 12:30:00,
2013-05-25 08:32:00,51.4,44.4,30.21,NW,311,0.0,1.0,77,0.00,,,0.00,Wunderground v.1.15,2013-05-25 12:32:00,
2013-05-25 08:35:00,51.9,45.9,30.21,NW,311,0.0,1.0,80,0.00,,,0.00,Wunderground v.1.15,2013-05-25 12:35:00,
2013-05-25 08:36:00,52.0,46.0,30.21,NW,311,0.0,1.0,80,0.00,,,0.00,Wunderground v.1.15,2013-05-25 12:36:00,
2013-05-25 08:39:00,52.2,45.2,30.21,NW,313,0.0,1.0,77,0.00,,,0.00,Wunderground v.1.15,2013-05-25 12:39:00,
2013-05-25 08:40:00,52.3,43.9,30.21,NW,313,0.0,1.0,73,0.00,,,0.00,Wunderground v.1.15,2013-05-25 12:40:00,
2013-05-25 08:44:00,52.8,41.7,30.21,NW,312,0.0,1.0,66,0.00,,,0.00,Wunderground v.1.15,2013-05-25 12:44:00,
2013-05-25 08:46:00,53.1,40.8,30.21,SSE,161,0.0,3.0,63,0.00,,,0.00,Wunderground v.1.15,2013-05-25 12:46:00,
2013-05-25 08:47:00,53.2,40.9,30.21,SSE,161,0.0,3.0,63,0.00,,,0.00,Wunderground v.1.15,2013-05-25 12:47:00,
2013-05-25 08:49:00,53.6,41.3,30.21,South,171,0.0,3.0,63,0.00,,,0.00,Wunderground v.1.15,2013-05-25 12:49:00,
2013-05-25 08:51:00,54.1,40.1,30.21,South,171,1.0,1.0,59,0.00,,,0.00,Wunderground v.1.15,2013-05-25 12:51:00,
2013-05-25 08:52:00,54.2,40.2,30.21,South,171,1.0,1.0,59,0.00,,,0.00,Wunderground v.1.15,2013-05-25 12:52:00,
2013-05-25 08:56:00,54.8,40.7,30.21,SE,141,1.0,3.0,59,0.00,,,0.00,Wunderground v.1.15,2013-05-25 12:56:00,
2013-05-25 08:57:00,55.0,37.2,30.21,SE,141,1.0,3.0,51,0.00,,,0.00,Wunderground v.1.15,2013-05-25 12:57:00,
2013-05-25 09:01:00,55.7,36.3,30.22,SE,141,1.0,1.0,48,0.00,,,0.00,Wunderground v.1.15,2013-05-25 13:01:00,
2013-05-25 09:02:00,55.7,36.3,30.22,SE,141,1.0,1.0,48,0.00,,,0.00,Wunderground v.1.15,2013-05-25 13:02:00,
2013-05-25 09:04:00,56.2,37.8,30.22,WSW,244,1.0,5.0,50,0.00,,,0.00,Wunderground v.1.15,2013-05-25 13:04:00,
2013-05-25 09:07:00,56.5,37.0,30.22,ESE,116,1.0,5.0,48,0.00,,,0.00,Wunderground v.1.15,2013-05-25 13:07:00,
2013-05-25 09:08:00,56.7,36.1,30.22,SE,130,1.0,5.0,46,0.00,,,0.00,Wunderground v.1.15,2013-05-25 13:08:00,
2013-05-25 09:10:00,56.9,37.4,30.22,ESE,120,1.0,1.0,48,0.00,,,0.00,Wunderground v.1.15,2013-05-25 13:10:00,
2013-05-25 09:13:00,57.3,37.8,30.22,ESE,120,1.0,1.0,48,0.00,,,0.00,Wunderground v.1.15,2013-05-25 13:13:00,
2013-05-25 09:14:00,57.5,37.9,30.22,ESE,120,1.0,1.0,48,0.00,,,0.00,Wunderground v.1.15,2013-05-25 13:14:00,
2013-05-25 09:16:00,57.6,38.0,30.22,ESE,117,0.0,1.0,48,0.00,,,0.00,Wunderground v.1.15,2013-05-25 13:16:00,
2013-05-25 09:17:00,57.8,39.8,30.22,SSW,206,0.0,1.0,51,0.00,,,0.00,Wunderground v.1.15,2013-05-25 13:17:00,
2013-05-25 09:19:00,57.8,35.4,30.22,SSW,206,0.0,1.0,43,0.00,,,0.00,Wunderground v.1.15,2013-05-25 13:19:00,
2013-05-25 09:22:00,58.0,34.4,30.22,SSW,195,1.0,4.0,41,0.00,,,0.00,Wunderground v.1.15,2013-05-25 13:22:00,
2013-05-25 09:23:00,58.1,36.9,30.22,SSW,195,1.0,4.0,45,0.00,,,0.00,Wunderground v.1.15,2013-05-25 13:23:00,
2013-05-25 09:25:00,58.3,37.0,30.22,SSW,196,1.0,4.0,45,0.00,,,0.00,Wunderground v.1.15,2013-05-25 13:25:00,
2013-05-25 09:27:00,58.6,35.6,30.22,SSW,205,1.0,4.0,42,0.00,,,0.00,Wunderground v.1.15,2013-05-25 13:27:00,
2013-05-25 09:28:00,58.6,35.6,30.22,SSW,206,1.0,4.0,42,0.00,,,0.00,Wunderground v.1.15,2013-05-25 13:28:00,
2013-05-25 09:30:00,58.7,37.4,30.22,SSW,208,0.0,1.0,45,0.00,,,0.00,Wunderground v.1.15,2013-05-25 13:30:00,
2013-05-25 09:33:00,59.0,37.7,30.22,SSW,206,0.0,1.0,45,0.00,,,0.00,Wunderground v.1.15,2013-05-25 13:33:00,
2013-05-25 09:36:00,59.3,35.6,30.22,SW,223,0.0,1.0,41,0.00,,,0.00,Wunderground v.1.15,2013-05-25 13:36:00,
2013-05-25 09:37:00,59.5,36.4,30.22,SSW,213,0.0,1.0,42,0.00,,,0.00,Wunderground v.1.15,2013-05-25 13:37:00,
2013-05-25 09:38:00,59.6,35.9,30.22,SW,227,0.0,1.0,41,0.00,,,0.00,Wunderground v.1.15,2013-05-25 13:38:00,
2013-05-25 09:39:00,59.6,35.9,30.22,SW,227,0.0,1.0,41,0.00,,,0.00,Wunderground v.1.15,2013-05-25 13:39:00,
2013-05-25 09:43:00,59.9,34.9,30.22,West,272,1.0,2.0,39,0.00,,,0.00,Wunderground v.1.15,2013-05-25 13:43:00,
2013-05-25 09:44:00,59.9,34.2,30.22,West,272,1.0,2.0,38,0.00,,,0.00,Wunderground v.1.15,2013-05-25 13:44:00,
2013-05-25 09:45:00,60.1,35.7,30.22,West,267,1.0,2.0,40,0.00,,,0.00,Wunderground v.1.15,2013-05-25 13:45:00,
2013-05-25 09:49:00,60.4,34.0,30.21,SSE,155,1.0,3.0,37,0.00,,,0.00,Wunderground v.1.15,2013-05-25 13:49:00,
2013-05-25 09:50:00,60.5,35.4,30.21,SSE,154,1.0,1.0,39,0.00,,,0.00,Wunderground v.1.15,2013-05-25 13:50:00,
2013-05-25 09:52:00,60.9,34.4,30.21,SSE,152,1.0,1.0,37,0.00,,,0.00,Wunderground v.1.15,2013-05-25 13:52:00,
2013-05-25 09:53:00,61.0,35.8,30.21,SSE,152,0.0,1.0,39,0.00,,,0.00,Wunderground v.1.15,2013-05-25 13:53:00,
2013-05-25 09:55:00,61.2,36.0,30.21,SE,143,1.0,5.0,39,0.00,,,0.00,Wunderground v.1.15,2013-05-25 13:55:00,
2013-05-25 09:57:00,61.2,36.0,30.21,South,182,1.0,5.0,39,0.00,,,0.00,Wunderground v.1.15,2013-05-25 13:57:00,
2013-05-25 09:58:00,61.2,36.0,30.21,South,184,1.0,5.0,39,0.00,,,0.00,Wunderground v.1.15,2013-05-25 13:58:00,
2013-05-25 10:02:00,61.3,34.1,30.20,West,263,1.0,4.0,36,0.00,,,0.00,Wunderground v.1.15,2013-05-25 14:02:00,
2013-05-25 10:03:00,61.3,33.4,30.20,West,261,2.0,4.0,35,0.00,,,0.00,Wunderground v.1.15,2013-05-25 14:03:00,
2013-05-25 10:08:00,61.8,33.8,30.20,WSW,250,1.0,4.0,35,0.00,,,0.00,Wunderground v.1.15,2013-05-25 14:08:00,
2013-05-25 10:09:00,61.8,35.2,30.20,WSW,246,2.0,4.0,37,0.00,,,0.00,Wunderground v.1.15,2013-05-25 14:09:00,
2013-05-25 10:12:00,62.0,34.0,30.20,WSW,246,1.0,1.0,35,0.00,,,0.00,Wunderground v.1.15,2013-05-25 14:12:00,
2013-05-25 10:13:00,62.1,34.1,30.20,WSW,246,1.0,1.0,35,0.00,,,0.00,Wunderground v.1.15,2013-05-25 14:13:00,
2013-05-25 10:14:00,62.0,36.1,30.20,WSW,246,1.0,1.0,38,0.00,,,0.00,Wunderground v.1.15,2013-05-25 14:14:00,
2013-05-25 10:16:00,62.1,34.8,30.21,WSW,246,1.0,1.0,36,0.00,,,0.00,Wunderground v.1.15,2013-05-25 14:16:00,
2013-05-25 10:20:00,62.4,34.4,30.21,West,270,1.0,1.0,35,0.00,,,0.00,Wunderground v.1.15,2013-05-25 14:20:00,
2013-05-25 10:21:00,62.4,35.1,30.21,West,270,1.0,1.0,36,0.00,,,0.00,Wunderground v.1.15,2013-05-25 14:21:00,
2013-05-25 10:24:00,62.6,35.9,30.21,WNW,291,1.0,1.0,37,0.00,,,0.00,Wunderground v.1.15,2013-05-25 14:24:00,
2013-05-25 10:25:00,62.7,36.0,30.21,WNW,287,1.0,1.0,37,0.00,,,0.00,Wunderground v.1.15,2013-05-25 14:25:00,
2013-05-25 10:26:00,62.9,37.5,30.21,SSW,208,1.0,7.0,39,0.00,,,0.00,Wunderground v.1.15,2013-05-25 14:26:00,
2013-05-25 10:31:00,62.7,33.9,30.21,SW,232,2.0,3.0,34,0.00,,,0.00,Wunderground v.1.15,2013-05-25 14:31:00,
2013-05-25 10:32:00,62.7,36.7,30.22,SW,232,2.0,3.0,38,0.00,,,0.00,Wunderground v.1.15,2013-05-25 14:32:00,
2013-05-25 10:33:00,62.9,36.9,30.22,SW,232,2.0,3.0,38,0.00,,,0.00,Wunderground v.1.15,2013-05-25 14:33:00,
2013-05-25 10:37:00,62.9,32.6,30.22,WSW,243,2.0,3.0,32,0.00,,,0.00,Wunderground v.1.15,2013-05-25 14:37:00,
2013-05-25 10:40:00,62.9,34.8,30.22,SSW,209,2.0,2.0,35,0.00,,,0.00,Wunderground v.1.15,2013-05-25 14:40:00,
2013-05-25 10:43:00,63.4,32.2,30.22,SSW,200,1.0,2.0,31,0.00,,,0.00,Wunderground v.1.15,2013-05-25 14:43:00,
2013-05-25 10:48:00,63.9,33.4,30.22,SSW,203,1.0,2.0,32,0.00,,,0.00,Wunderground v.1.15,2013-05-25 14:48:00,
2013-05-25 10:49:00,64.2,33.7,30.22,SSW,203,1.0,2.0,32,0.00,,,0.00,Wunderground v.1.15,2013-05-25 14:49:00,
2013-05-25 10:50:00,64.3,37.5,30.22,SSW,203,1.0,1.0,37,0.00,,,0.00,Wunderground v.1.15,2013-05-25 14:50:00,
2013-05-25 10:53:00,64.7,32.5,30.22,SSW,195,1.0,3.0,30,0.00,,,0.00,Wunderground v.1.15,2013-05-25 14:53:00,
2013-05-25 10:56:00,64.7,34.1,30.22,SSW,193,1.0,3.0,32,0.00,,,0.00,Wunderground v.1.15,2013-05-25 14:56:00,
2013-05-25 10:58:00,65.0,33.6,30.22,SW,222,1.0,3.0,31,0.00,,,0.00,Wunderground v.1.15,2013-05-25 14:58:00,
2013-05-25 11:02:00,65.5,34.0,30.22,South,185,1.0,1.0,31,0.00,,,0.00,Wunderground v.1.15,2013-05-25 15:02:00,
2013-05-25 11:03:00,65.6,34.9,30.22,South,178,1.0,1.0,32,0.00,,,0.00,Wunderground v.1.15,2013-05-25 15:03:00,
2013-05-25 11:04:00,65.8,33.5,30.22,South,171,0.0,1.0,30,0.00,,,0.00,Wunderground v.1.15,2013-05-25 15:04:00,
2013-05-25 11:05:00,66.0,31.9,30.22,South,171,0.0,1.0,28,0.00,,,0.00,Wunderground v.1.15,2013-05-25 15:05:00,
2013-05-25 11:07:00,66.0,32.8,30.22,NNE,27,1.0,3.0,29,0.00,,,0.00,Wunderground v.1.15,2013-05-25 15:07:00,
2013-05-25 11:08:00,66.0,33.7,30.22,SSE,161,1.0,3.0,30,0.00,,,0.00,Wunderground v.1.15,2013-05-25 15:08:00,
2013-05-25 11:11:00,66.3,36.3,30.22,South,179,1.0,1.0,33,0.00,,,0.00,Wunderground v.1.15,2013-05-25 15:11:00,
2013-05-25 11:12:00,66.3,37.8,30.22,South,179,1.0,1.0,35,0.00,,,0.00,Wunderground v.1.15,2013-05-25 15:12:00,
2013-05-25 11:13:00,66.3,34.7,30.22,South,179,1.0,1.0,31,0.00,,,0.00,Wunderground v.1.15,2013-05-25 15:13:00,
2013-05-25 11:14:00,66.4,34.8,30.22,South,179,1.0,1.0,31,0.00,,,0.00,Wunderground v.1.15,2013-05-25 15:14:00,
2013-05-25 11:15:00,66.4,34.8,30.22,South,179,1.0,1.0,31,0.00,,,0.00,Wunderground v.1.15,2013-05-25 15:15:00,
2013-05-25 11:18:00,66.8,36.8,30.22,NE,56,0.0,2.0,33,0.00,,,0.00,Wunderground v.1.15,2013-05-25 15:18:00,
2013-05-25 11:19:00,66.8,33.5,30.22,NE,51,0.0,2.0,29,0.00,,,0.00,Wunderground v.1.15,2013-05-25 15:19:00,
2013-05-25 11:20:00,66.8,35.2,30.22,SE,133,0.0,3.0,31,0.00,,,0.00,Wunderground v.1.15,2013-05-25 15:20:00,
2013-05-25 11:21:00,66.8,38.3,30.22,SE,134,1.0,3.0,35,0.00,,,0.00,Wunderground v.1.15,2013-05-25 15:21:00,
2013-05-25 11:24:00,66.9,38.3,30.22,ESE,121,1.0,3.0,35,0.00,,,0.00,Wunderground v.1.15,2013-05-25 15:24:00,
2013-05-25 11:26:00,67.1,39.2,30.22,ESE,120,1.0,3.0,36,0.00,,,0.00,Wunderground v.1.15,2013-05-25 15:26:00,
2013-05-25 11:27:00,67.1,38.5,30.22,SE,138,1.0,3.0,35,0.00,,,0.00,Wunderground v.1.15,2013-05-25 15:27:00,
2013-05-25 11:30:00,67.1,34.6,30.22,SW,236,1.0,2.0,30,0.00,,,0.00,Wunderground v.1.15,2013-05-25 15:30:00,
2013-05-25 11:31:00,66.9,36.1,30.22,South,179,1.0,2.0,32,0.00,,,0.00,Wunderground v.1.15,2013-05-25 15:31:00,
2013-05-25 11:33:00,66.8,35.2,30.21,SSE,161,2.0,4.0,31,0.00,,,0.00,Wunderground v.1.15,2013-05-25 15:33:00,
2013-05-25 11:36:00,66.9,38.3,30.21,South,178,2.0,6.0,35,0.00,,,0.00,Wunderground v.1.15,2013-05-25 15:36:00,
2013-05-25 11:38:00,66.9,34.4,30.21,South,169,2.0,6.0,30,0.00,,,0.00,Wunderground v.1.15,2013-05-25 15:38:00,
2013-05-25 11:40:00,67.3,40.8,30.21,South,169,2.0,2.0,38,0.00,,,0.00,Wunderground v.1.15,2013-05-25 15:40:00,
2013-05-25 11:41:00,67.4,40.9,30.21,South,169,1.0,2.0,38,0.00,,,0.00,Wunderground v.1.15,2013-05-25 15:41:00,
2013-05-25 11:44:00,67.8,34.4,30.21,South,169,1.0,2.0,29,0.00,,,0.00,Wunderground v.1.15,2013-05-25 15:44:00,
2013-05-25 11:46:00,67.8,34.4,30.19,South,175,1.0,2.0,29,0.00,,,0.00,Wunderground v.1.15,2013-05-25 15:46:00,
2013-05-25 11:48:00,67.8,37.6,30.19,ESE,123,1.0,2.0,33,0.00,,,0.00,Wunderground v.1.15,2013-05-25 15:48:00,
2013-05-25 11:50:00,67.6,33.3,30.19,NE,35,1.0,1.0,28,0.00,,,0.00,Wunderground v.1.15,2013-05-25 15:50:00,
2013-05-25 11:51:00,67.6,34.2,30.19,NNE,23,1.0,2.0,29,0.00,,,0.00,Wunderground v.1.15,2013-05-25 15:51:00,
2013-05-25 11:53:00,67.8,36.8,30.19,ENE,66,1.0,2.0,32,0.00,,,0.00,Wunderground v.1.15,2013-05-25 15:53:00,
2013-05-25 11:54:00,67.8,36.0,30.19,ENE,69,1.0,2.0,31,0.00,,,0.00,Wunderground v.1.15,2013-05-25 15:54:00,
2013-05-25 11:56:00,67.9,33.6,30.19,SSE,147,1.0,2.0,28,0.00,,,0.00,Wunderground v.1.15,2013-05-25 15:56:00,
2013-05-25 11:57:00,68.1,35.5,30.19,ESE,121,1.0,2.0,30,0.00,,,0.00,Wunderground v.1.15,2013-05-25 15:57:00,
2013-05-25 12:00:00,68.3,33.9,30.19,East,85,1.0,1.0,28,0.00,,,0.00,Wunderground v.1.15,2013-05-25 16:00:00,
2013-05-25 12:01:00,68.4,35.7,30.19,East,85,1.0,1.0,30,0.00,,,0.00,Wunderground v.1.15,2013-05-25 16:01:00,
2013-05-25 12:06:00,68.9,36.2,30.19,East,95,1.0,3.0,30,0.00,,,0.00,Wunderground v.1.15,2013-05-25 16:06:00,
2013-05-25 12:07:00,68.9,33.5,30.19,East,95,1.0,3.0,27,0.00,,,0.00,Wunderground v.1.15,2013-05-25 16:07:00,
2013-05-25 12:08:00,69.1,37.2,30.19,East,86,1.0,3.0,31,0.00,,,0.00,Wunderground v.1.15,2013-05-25 16:08:00,
2013-05-25 12:09:00,68.9,34.4,30.19,ENE,75,1.0,3.0,28,0.00,,,0.00,Wunderground v.1.15,2013-05-25 16:09:00,
2013-05-25 12:10:00,68.8,32.5,30.19,North,0,1.0,1.0,26,0.00,,,0.00,Wunderground v.1.15,2013-05-25 16:10:00,
2013-05-25 12:14:00,68.8,36.1,30.19,ENE,72,1.0,1.0,30,0.00,,,0.00,Wunderground v.1.15,2013-05-25 16:14:00,
2013-05-25 12:15:00,68.9,37.0,30.19,ENE,72,1.0,1.0,31,0.00,,,0.00,Wunderground v.1.15,2013-05-25 16:15:00,
2013-05-25 12:19:00,69.1,37.2,30.19,NE,47,0.0,2.0,31,0.00,,,0.00,Wunderground v.1.15,2013-05-25 16:19:00,
2013-05-25 12:20:00,69.1,37.2,30.19,North,0,0.0,1.0,31,0.00,,,0.00,Wunderground v.1.15,2013-05-25 16:20:00,
2013-05-25 12:21:00,69.3,35.7,30.19,North,349,0.0,1.0,29,0.00,,,0.00,Wunderground v.1.15,2013-05-25 16:21:00,
2013-05-25 12:25:00,69.6,35.0,30.19,NW,306,0.0,1.0,28,0.00,,,0.00,Wunderground v.1.15,2013-05-25 16:25:00,
2013-05-25 12:26:00,69.6,33.2,30.19,NE,49,1.0,1.0,26,0.00,,,0.00,Wunderground v.1.15,2013-05-25 16:26:00,
2013-05-25 12:27:00,69.6,33.2,30.19,ENE,76,1.0,1.0,26,0.00,,,0.00,Wunderground v.1.15,2013-05-25 16:27:00,
2013-05-25 12:31:00,69.8,35.2,30.19,ENE,71,0.0,1.0,28,0.00,,,0.00,Wunderground v.1.15,2013-05-25 16:31:00,
2013-05-25 12:32:00,69.8,33.3,30.18,ENE,71,0.0,1.0,26,0.00,,,0.00,Wunderground v.1.15,2013-05-25 16:32:00,
2013-05-25 12:33:00,69.8,35.2,30.18,ENE,69,0.0,1.0,28,0.00,,,0.00,Wunderground v.1.15,2013-05-25 16:33:00,
2013-05-25 12:36:00,69.9,35.3,30.18,SSW,209,0.0,3.0,28,0.00,,,0.00,Wunderground v.1.15,2013-05-25 16:36:00,
2013-05-25 12:37:00,70.1,34.5,30.18,SSW,209,0.0,3.0,27,0.00,,,0.00,Wunderground v.1.15,2013-05-25 16:37:00,
2013-05-25 12:38:00,70.3,34.7,30.18,SSW,209,0.0,3.0,27,0.00,,,0.00,Wunderground v.1.15,2013-05-25 16:38:00,
2013-05-25 12:39:00,70.3,34.7,30.18,SSW,209,0.0,3.0,27,0.00,,,0.00,Wunderground v.1.15,2013-05-25 16:39:00,
2013-05-25 12:44:00,70.9,34.3,30.18,SSW,198,0.0,1.0,26,0.00,,,0.00,Wunderground v.1.15,2013-05-25 16:44:00,
2013-05-25 12:45:00,71.1,36.3,30.18,SSW,198,0.0,1.0,28,0.00,,,0.00,Wunderground v.1.15,2013-05-25 16:45:00,
2013-05-25 12:47:00,71.3,37.4,30.17,ESE,117,0.0,1.0,29,0.00,,,0.00,Wunderground v.1.15,2013-05-25 16:47:00,
2013-05-25 12:50:00,71.1,32.5,30.17,North,0,0.0,1.0,24,0.00,,,0.00,Wunderground v.1.15,2013-05-25 16:50:00,
2013-05-25 12:51:00,71.1,32.5,30.17,North,356,0.0,1.0,24,0.00,,,0.00,Wunderground v.1.15,2013-05-25 16:51:00,
2013-05-25 12:52:00,71.1,32.5,30.17,South,179,0.0,3.0,24,0.00,,,0.00,Wunderground v.1.15,2013-05-25 16:52:00,
2013-05-25 12:56:00,71.1,32.5,30.17,South,176,1.0,3.0,24,0.00,,,0.00,Wunderground v.1.15,2013-05-25 16:56:00,
2013-05-25 12:58:00,71.5,36.7,30.17,SSE,168,1.0,3.0,28,0.00,,,0.00,Wunderground v.1.15,2013-05-25 16:58:00,
2013-05-25 13:00:00,71.5,35.7,30.17,SSE,168,1.0,1.0,27,0.00,,,0.00,Wunderground v.1.15,2013-05-25 17:00:00,
2013-05-25 13:02:00,71.5,33.8,30.16,SE,136,1.0,2.0,25,0.00,,,0.00,Wunderground v.1.15,2013-05-25 17:02:00,
2013-05-25 13:04:00,71.5,35.7,30.16,SSE,151,1.0,2.0,27,0.00,,,0.00,Wunderground v.1.15,2013-05-25 17:04:00,
2013-05-25 13:05:00,71.5,34.8,30.16,SE,144,1.0,2.0,26,0.00,,,0.00,Wunderground v.1.15,2013-05-25 17:05:00,
2013-05-25 13:06:00,71.5,33.8,30.16,SE,136,1.0,2.0,25,0.00,,,0.00,Wunderground v.1.15,2013-05-25 17:06:00,
2013-05-25 13:07:00,71.6,33.9,30.16,SSE,165,1.0,2.0,25,0.00,,,0.00,Wunderground v.1.15,2013-05-25 17:07:00,
2013-05-25 13:08:00,71.6,32.9,30.16,South,169,1.0,2.0,24,0.00,,,0.00,Wunderground v.1.15,2013-05-25 17:08:00,
2013-05-25 13:12:00,71.8,37.8,30.16,South,169,1.0,2.0,29,0.00,,,0.00,Wunderground v.1.15,2013-05-25 17:12:00,
2013-05-25 13:14:00,72.0,35.2,30.16,WSW,240,1.0,4.0,26,0.00,,,0.00,Wunderground v.1.15,2013-05-25 17:14:00,
2013-05-25 13:16:00,71.8,35.0,30.16,SW,236,1.0,6.0,26,0.00,,,0.00,Wunderground v.1.15,2013-05-25 17:16:00,
2013-05-25 13:17:00,71.8,35.0,30.16,SW,220,2.0,6.0,26,0.00,,,0.00,Wunderground v.1.15,2013-05-25 17:17:00,
2013-05-25 13:19:00,71.6,32.9,30.16,SW,233,2.0,6.0,24,0.00,,,0.00,Wunderground v.1.15,2013-05-25 17:19:00,
2013-05-25 13:22:00,72.0,35.2,30.16,West,263,2.0,2.0,26,0.00,,,0.00,Wunderground v.1.15,2013-05-25 17:22:00,
2013-05-25 13:23:00,72.0,33.2,30.16,West,267,2.0,2.0,24,0.00,,,0.00,Wunderground v.1.15,2013-05-25 17:23:00,
2013-05-25 13:24:00,72.0,33.2,30.16,SW,233,2.0,5.0,24,0.00,,,0.00,Wunderground v.1.15,2013-05-25 17:24:00,
2013-05-25 13:26:00,71.6,32.9,30.16,SSW,209,2.0,5.0,24,0.00,,,0.00,Wunderground v.1.15,2013-05-25 17:26:00,
2013-05-25 13:27:00,71.5,32.8,30.16,SW,222,2.0,5.0,24,0.00,,,0.00,Wunderground v.1.15,2013-05-25 17:27:00,
2013-05-25 13:29:00,71.6,35.8,30.16,SW,215,2.0,5.0,27,0.00,,,0.00,Wunderground v.1.15,2013-05-25 17:29:00,
2013-05-25 13:31:00,71.6,32.9,30.16,North,0,2.0,2.0,24,0.00,,,0.00,Wunderground v.1.15,2013-05-25 17:31:00,
2013-05-25 13:32:00,71.6,35.8,30.15,NW,309,2.0,2.0,27,0.00,,,0.00,Wunderground v.1.15,2013-05-25 17:32:00,
2013-05-25 13:34:00,72.0,35.2,30.15,SSW,198,1.0,2.0,26,0.00,,,0.00,Wunderground v.1.15,2013-05-25 17:34:00,
2013-05-25 13:35:00,72.1,35.3,30.15,West,263,1.0,3.0,26,0.00,,,0.00,Wunderground v.1.15,2013-05-25 17:35:00,
2013-05-25 13:39:00,72.1,35.3,30.15,SSE,157,2.0,3.0,26,0.00,,,0.00,Wunderground v.1.15,2013-05-25 17:39:00,
2013-05-25 13:40:00,72.3,35.5,30.15,SSE,168,2.0,2.0,26,0.00,,,0.00,Wunderground v.1.15,2013-05-25 17:40:00,
2013-05-25 13:43:00,72.5,36.6,30.15,SW,236,2.0,2.0,27,0.00,,,0.00,Wunderground v.1.15,2013-05-25 17:43:00,
2013-05-25 13:46:00,72.5,32.6,30.14,SSE,150,2.0,2.0,23,0.00,,,0.00,Wunderground v.1.15,2013-05-25 17:46:00,
2013-05-25 13:47:00,72.7,32.7,30.14,SSE,158,2.0,2.0,23,0.00,,,0.00,Wunderground v.1.15,2013-05-25 17:47:00,
2013-05-25 13:49:00,72.8,38.7,30.14,South,189,1.0,3.0,29,0.00,,,0.00,Wunderground v.1.15,2013-05-25 17:49:00,
2013-05-25 13:52:00,72.7,32.7,30.14,South,184,2.0,5.0,23,0.00,,,0.00,Wunderground v.1.15,2013-05-25 17:52:00,
2013-05-25 13:54:00,72.7,32.7,30.14,South,185,2.0,5.0,23,0.00,,,0.00,Wunderground v.1.15,2013-05-25 17:54:00,
2013-05-25 13:55:00,72.7,36.8,30.14,South,185,2.0,5.0,27,0.00,,,0.00,Wunderground v.1.15,2013-05-25 17:55:00,
2013-05-25 13:57:00,72.8,35.9,30.14,South,185,2.0,5.0,26,0.00,,,0.00,Wunderground v.1.15,2013-05-25 17:57:00,
2013-05-25 13:58:00,73.0,38.0,30.14,SW,215,2.0,5.0,28,0.00,,,0.00,Wunderground v.1.15,2013-05-25 17:58:00,
2013-05-25 14:00:00,72.8,34.9,30.14,WSW,254,2.0,2.0,25,0.00,,,0.00,Wunderground v.1.15,2013-05-25 18:00:00,
2013-05-25 14:02:00,72.8,37.8,30.14,North,356,2.0,2.0,28,0.00,,,0.00,Wunderground v.1.15,2013-05-25 18:02:00,
2013-05-25 14:06:00,73.3,45.4,30.14,SSE,165,2.0,6.0,37,0.00,,,0.00,Wunderground v.1.15,2013-05-25 18:06:00,
2013-05-25 14:07:00,73.2,45.4,30.14,SSW,198,3.0,6.0,37,0.00,,,0.00,Wunderground v.1.15,2013-05-25 18:07:00,
2013-05-25 14:08:00,73.2,38.1,30.14,South,178,3.0,6.0,28,0.00,,,0.00,Wunderground v.1.15,2013-05-25 18:08:00,
2013-05-25 14:14:00,73.2,36.2,30.14,ESE,123,2.0,3.0,26,0.00,,,0.00,Wunderground v.1.15,2013-05-25 18:14:00,
2013-05-25 14:15:00,73.2,37.2,30.14,ESE,116,2.0,3.0,27,0.00,,,0.00,Wunderground v.1.15,2013-05-25 18:15:00,
2013-05-25 14:16:00,73.2,38.1,30.13,NNE,31,2.0,3.0,28,0.00,,,0.00,Wunderground v.1.15,2013-05-25 18:16:00,
2013-05-25 14:17:00,73.2,38.1,30.13,NNE,31,2.0,3.0,28,0.00,,,0.00,Wunderground v.1.15,2013-05-25 18:17:00,
2013-05-25 14:20:00,73.3,37.3,30.13,NE,38,1.0,1.0,27,0.00,,,0.00,Wunderground v.1.15,2013-05-25 18:20:00,
2013-05-25 14:21:00,73.3,40.0,30.13,SE,133,1.0,1.0,30,0.00,,,0.00,Wunderground v.1.15,2013-05-25 18:21:00,
2013-05-25 14:23:00,73.7,38.6,30.13,WSW,237,1.0,8.0,28,0.00,,,0.00,Wunderground v.1.15,2013-05-25 18:23:00,
2013-05-25 14:24:00,73.5,36.5,30.13,SSW,196,1.0,8.0,26,0.00,,,0.00,Wunderground v.1.15,2013-05-25 18:24:00,
2013-05-25 14:27:00,73.5,36.5,30.13,SSW,202,2.0,8.0,26,0.00,,,0.00,Wunderground v.1.15,2013-05-25 18:27:00,
2013-05-25 14:29:00,73.3,40.8,30.13,SSW,202,2.0,8.0,31,0.00,,,0.00,Wunderground v.1.15,2013-05-25 18:29:00,
2013-05-25 14:32:00,73.3,39.1,30.12,SSE,148,2.0,2.0,29,0.00,,,0.00,Wunderground v.1.15,2013-05-25 18:32:00,
2013-05-25 14:33:00,73.5,40.2,30.12,SSE,157,2.0,2.0,30,0.00,,,0.00,Wunderground v.1.15,2013-05-25 18:33:00,
2013-05-25 14:34:00,73.5,37.5,30.12,ESE,114,2.0,2.0,27,0.00,,,0.00,Wunderground v.1.15,2013-05-25 18:34:00,
2013-05-25 14:37:00,73.7,38.6,30.12,SE,127,1.0,2.0,28,0.00,,,0.00,Wunderground v.1.15,2013-05-25 18:37:00,
2013-05-25 14:39:00,73.7,39.5,30.12,SSE,148,1.0,2.0,29,0.00,,,0.00,Wunderground v.1.15,2013-05-25 18:39:00,
2013-05-25 14:42:00,73.7,38.6,30.12,East,85,2.0,4.0,28,0.00,,,0.00,Wunderground v.1.15,2013-05-25 18:42:00,
2013-05-25 14:44:00,73.7,39.5,30.12,East,83,2.0,4.0,29,0.00,,,0.00,Wunderground v.1.15,2013-05-25 18:44:00,
2013-05-25 14:45:00,73.9,41.3,30.12,East,83,1.0,4.0,31,0.00,,,0.00,Wunderground v.1.15,2013-05-25 18:45:00,
2013-05-25 14:47:00,74.2,42.4,30.10,SSW,196,1.0,4.0,32,0.00,,,0.00,Wunderground v.1.15,2013-05-25 18:47:00,
2013-05-25 14:49:00,74.6,42.8,30.10,South,174,1.0,5.0,32,0.00,,,0.00,Wunderground v.1.15,2013-05-25 18:49:00,
2013-05-25 14:50:00,74.6,39.3,30.10,SSE,167,1.0,1.0,28,0.00,,,0.00,Wunderground v.1.15,2013-05-25 18:50:00,
2013-05-25 14:52:00,74.6,42.8,30.10,WSW,253,1.0,3.0,32,0.00,,,0.00,Wunderground v.1.15,2013-05-25 18:52:00,
2013-05-25 14:54:00,74.6,37.4,30.10,SE,128,1.0,3.0,26,0.00,,,0.00,Wunderground v.1.15,2013-05-25 18:54:00,
2013-05-25 14:55:00,74.6,38.4,30.10,SE,128,2.0,3.0,27,0.00,,,0.00,Wunderground v.1.15,2013-05-25 18:55:00,
2013-05-25 14:57:00,74.6,38.4,30.10,SE,131,1.0,3.0,27,0.00,,,0.00,Wunderground v.1.15,2013-05-25 18:57:00,
2013-05-25 14:59:00,75.1,38.8,30.10,WSW,239,2.0,3.0,27,0.00,,,0.00,Wunderground v.1.15,2013-05-25 18:59:00,
2013-05-25 15:00:00,74.9,37.7,30.10,WSW,239,2.0,2.0,26,0.00,,,0.00,Wunderground v.1.15,2013-05-25 19:00:00,
2013-05-25 15:01:00,74.9,37.7,30.10,WSW,253,2.0,5.0,26,0.00,,,0.00,Wunderground v.1.15,2013-05-25 19:01:00,
2013-05-25 15:04:00,74.6,39.3,30.10,SE,145,2.0,5.0,28,0.00,,,0.00,Wunderground v.1.15,2013-05-25 19:04:00,
2013-05-25 15:05:00,74.6,40.2,30.10,SE,145,1.0,5.0,29,0.00,,,0.00,Wunderground v.1.15,2013-05-25 19:05:00,
2013-05-25 15:06:00,74.6,40.2,30.10,SE,145,1.0,5.0,29,0.00,,,0.00,Wunderground v.1.15,2013-05-25 19:06:00,
2013-05-25 15:09:00,74.9,43.8,30.10,West,274,1.0,5.0,33,0.00,,,0.00,Wunderground v.1.15,2013-05-25 19:09:00,
2013-05-25 15:11:00,75.1,38.8,30.10,SW,217,1.0,3.0,27,0.00,,,0.00,Wunderground v.1.15,2013-05-25 19:11:00,
2013-05-25 15:14:00,75.4,39.1,30.10,SW,224,1.0,3.0,27,0.00,,,0.00,Wunderground v.1.15,2013-05-25 19:14:00,
2013-05-25 15:15:00,75.4,41.8,30.10,SW,222,1.0,3.0,30,0.00,,,0.00,Wunderground v.1.15,2013-05-25 19:15:00,
2013-05-25 15:16:00,75.4,40.0,30.10,SW,222,1.0,3.0,28,0.00,,,0.00,Wunderground v.1.15,2013-05-25 19:16:00,
2013-05-25 15:17:00,75.4,40.0,30.10,SW,227,1.0,3.0,28,0.00,,,0.00,Wunderground v.1.15,2013-05-25 19:17:00,
2013-05-25 15:18:00,75.4,45.8,30.10,SW,227,1.0,3.0,35,0.00,,,0.00,Wunderground v.1.15,2013-05-25 19:18:00,
2013-05-25 15:21:00,75.4,40.0,30.10,SW,227,0.0,1.0,28,0.00,,,0.00,Wunderground v.1.15,2013-05-25 19:21:00,
2013-05-25 15:22:00,75.4,40.0,30.10,SW,227,0.0,1.0,28,0.00,,,0.00,Wunderground v.1.15,2013-05-25 19:22:00,
2013-05-25 15:23:00,75.4,40.0,30.10,SW,227,0.0,1.0,28,0.00,,,0.00,Wunderground v.1.15,2013-05-25 19:23:00,
2013-05-25 15:25:00,75.1,37.9,30.10,SW,227,0.0,1.0,26,0.00,,,0.00,Wunderground v.1.15,2013-05-25 19:25:00,
2013-05-25 15:27:00,75.1,36.9,30.10,SW,227,0.0,1.0,25,0.00,,,0.00,Wunderground v.1.15,2013-05-25 19:27:00,
2013-05-25 15:31:00,74.7,42.0,30.10,NE,48,0.0,1.0,31,0.00,,,0.00,Wunderground v.1.15,2013-05-25 19:31:00,
2013-05-25 15:32:00,74.7,35.5,30.10,NE,49,0.0,1.0,24,0.00,,,0.00,Wunderground v.1.15,2013-05-25 19:32:00,
2013-05-25 15:33:00,74.7,35.5,30.10,NE,49,0.0,1.0,24,0.00,,,0.00,Wunderground v.1.15,2013-05-25 19:33:00,
2013-05-25 15:34:00,74.9,39.6,30.10,NE,54,0.0,1.0,28,0.00,,,0.00,Wunderground v.1.15,2013-05-25 19:34:00,
2013-05-25 15:35:00,74.9,38.7,30.10,NE,52,1.0,1.0,27,0.00,,,0.00,Wunderground v.1.15,2013-05-25 19:35:00,
2013-05-25 15:38:00,75.1,35.8,30.10,NNE,31,1.0,4.0,24,0.00,,,0.00,Wunderground v.1.15,2013-05-25 19:38:00,
2013-05-25 15:40:00,75.3,37.0,30.10,East,97,1.0,1.0,25,0.00,,,0.00,Wunderground v.1.15,2013-05-25 19:40:00,
2013-05-25 15:42:00,75.4,40.0,30.10,ESE,104,1.0,2.0,28,0.00,,,0.00,Wunderground v.1.15,2013-05-25 19:42:00,
2013-05-25 15:43:00,75.6,40.2,30.10,ESE,104,1.0,2.0,28,0.00,,,0.00,Wunderground v.1.15,2013-05-25 19:43:00,
2013-05-25 15:44:00,75.8,39.4,30.10,East,80,1.0,2.0,27,0.00,,,0.00,Wunderground v.1.15,2013-05-25 19:44:00,
2013-05-25 15:47:00,75.8,39.4,30.10,North,0,1.0,2.0,27,0.00,,,0.00,Wunderground v.1.15,2013-05-25 19:47:00,
2013-05-25 15:48:00,75.6,40.2,30.10,NE,34,1.0,2.0,28,0.00,,,0.00,Wunderground v.1.15,2013-05-25 19:48:00,
2013-05-25 15:50:00,75.3,39.0,30.10,NE,41,1.0,7.0,27,0.00,,,0.00,Wunderground v.1.15,2013-05-25 19:50:00,
2013-05-25 15:52:00,75.1,38.8,30.10,NNE,32,1.0,7.0,27,0.00,,,0.00,Wunderground v.1.15,2013-05-25 19:52:00,
2013-05-25 15:53:00,74.7,38.5,30.10,NE,40,1.0,7.0,27,0.00,,,0.00,Wunderground v.1.15,2013-05-25 19:53:00,
2013-05-25 15:55:00,74.4,42.6,30.10,North,0,2.0,7.0,32,0.00,,,0.00,Wunderground v.1.15,2013-05-25 19:55:00,
2013-05-25 15:57:00,73.7,38.6,30.10,North,10,1.0,7.0,28,0.00,,,0.00,Wunderground v.1.15,2013-05-25 19:57:00,
2013-05-25 16:01:00,73.0,39.7,30.10,NE,34,1.0,2.0,30,0.00,,,0.00,Wunderground v.1.15,2013-05-25 20:01:00,
2013-05-25 16:02:00,72.8,37.8,30.11,NNE,30,1.0,2.0,28,0.00,,,0.00,Wunderground v.1.15,2013-05-25 20:02:00,
2013-05-25 16:03:00,72.7,37.7,30.11,NE,41,1.0,2.0,28,0.00,,,0.00,Wunderground v.1.15,2013-05-25 20:03:00,
2013-05-25 16:06:00,72.7,38.6,30.11,NE,51,1.0,2.0,29,0.00,,,0.00,Wunderground v.1.15,2013-05-25 20:06:00,
2013-05-25 16:07:00,72.7,37.7,30.11,ENE,58,1.0,2.0,28,0.00,,,0.00,Wunderground v.1.15,2013-05-25 20:07:00,
2013-05-25 16:08:00,72.7,40.3,30.11,NE,52,1.0,2.0,31,0.00,,,0.00,Wunderground v.1.15,2013-05-25 20:08:00,
2013-05-25 16:09:00,72.8,42.8,30.11,NNE,16,1.0,2.0,34,0.00,,,0.00,Wunderground v.1.15,2013-05-25 20:09:00,
2013-05-25 16:11:00,73.0,40.6,30.11,NE,41,1.0,10.0,31,0.00,,,0.00,Wunderground v.1.15,2013-05-25 20:11:00,
2013-05-25 16:12:00,73.0,40.6,30.11,ENE,72,1.0,10.0,31,0.00,,,0.00,Wunderground v.1.15,2013-05-25 20:12:00,
2013-05-25 16:14:00,73.2,38.1,30.11,ENE,58,2.0,10.0,28,0.00,,,0.00,Wunderground v.1.15,2013-05-25 20:14:00,
2013-05-25 16:18:00,73.5,38.4,30.10,NE,49,2.0,10.0,28,0.00,,,0.00,Wunderground v.1.15,2013-05-25 20:18:00,
2013-05-25 16:20:00,73.7,37.6,30.10,SE,141,1.0,1.0,27,0.00,,,0.00,Wunderground v.1.15,2013-05-25 20:20:00,
2013-05-25 16:21:00,73.9,38.7,30.10,NNE,21,1.0,1.0,28,0.00,,,0.00,Wunderground v.1.15,2013-05-25 20:21:00,
2013-05-25 16:23:00,74.0,38.8,30.10,SSW,205,1.0,1.0,28,0.00,,,0.00,Wunderground v.1.15,2013-05-25 20:23:00,
2013-05-25 16:25:00,74.4,37.3,30.10,South,175,0.0,1.0,26,0.00,,,0.00,Wunderground v.1.15,2013-05-25 20:25:00,
2013-05-25 16:27:00,74.6,42.8,30.10,SSE,157,0.0,1.0,32,0.00,,,0.00,Wunderground v.1.15,2013-05-25 20:27:00,
2013-05-25 16:29:00,74.7,37.5,30.10,West,270,1.0,1.0,26,0.00,,,0.00,Wunderground v.1.15,2013-05-25 20:29:00,
2013-05-25 16:30:00,74.9,39.6,30.10,SW,224,1.0,1.0,28,0.00,,,0.00,Wunderground v.1.15,2013-05-25 20:30:00,
2013-05-25 16:33:00,75.3,39.9,30.09,South,176,1.0,1.0,28,0.00,,,0.00,Wunderground v.1.15,2013-05-25 20:33:00,
2013-05-25 16:35:00,75.3,37.0,30.09,WSW,239,1.0,3.0,25,0.00,,,0.00,Wunderground v.1.15,2013-05-25 20:35:00,
2013-05-25 16:36:00,75.4,40.9,30.09,WSW,239,2.0,3.0,29,0.00,,,0.00,Wunderground v.1.15,2013-05-25 20:36:00,
2013-05-25 16:40:00,75.6,38.3,30.09,West,260,1.0,1.0,26,0.00,,,0.00,Wunderground v.1.15,2013-05-25 20:40:00,
2013-05-25 16:43:00,75.4,38.1,30.09,NNW,346,2.0,2.0,26,0.00,,,0.00,Wunderground v.1.15,2013-05-25 20:43:00,
2013-05-25 16:44:00,75.4,41.8,30.09,WSW,244,2.0,2.0,30,0.00,,,0.00,Wunderground v.1.15,2013-05-25 20:44:00,
2013-05-25 16:47:00,75.6,42.8,30.09,WNW,296,1.0,2.0,31,0.00,,,0.00,Wunderground v.1.15,2013-05-25 20:47:00,
2013-05-25 16:49:00,75.8,38.5,30.09,SSW,196,1.0,2.0,26,0.00,,,0.00,Wunderground v.1.15,2013-05-25 20:49:00,
2013-05-25 16:53:00,75.4,37.1,30.09,WSW,250,1.0,3.0,25,0.00,,,0.00,Wunderground v.1.15,2013-05-25 20:53:00,
2013-05-25 16:54:00,75.4,38.1,30.09,WSW,247,1.0,3.0,26,0.00,,,0.00,Wunderground v.1.15,2013-05-25 20:54:00,
2013-05-25 16:55:00,75.4,40.0,30.09,WSW,247,1.0,3.0,28,0.00,,,0.00,Wunderground v.1.15,2013-05-25 20:55:00,
2013-05-25 16:57:00,75.4,39.1,30.09,North,0,1.0,3.0,27,0.00,,,0.00,Wunderground v.1.15,2013-05-25 20:57:00,
2013-05-25 17:00:00,75.3,39.9,30.09,ESE,117,0.0,2.0,28,0.00,,,0.00,Wunderground v.1.15,2013-05-25 21:00:00,
2013-05-25 17:03:00,74.9,37.7,30.09,South,171,0.0,2.0,26,0.00,,,0.00,Wunderground v.1.15,2013-05-25 21:03:00,
2013-05-25 17:04:00,74.9,39.6,30.09,South,171,0.0,2.0,28,0.00,,,0.00,Wunderground v.1.15,2013-05-25 21:04:00,
2013-05-25 17:05:00,74.9,39.6,30.09,SSE,165,0.0,2.0,28,0.00,,,0.00,Wunderground v.1.15,2013-05-25 21:05:00,
2013-05-25 17:08:00,74.9,41.4,30.09,SSE,160,0.0,2.0,30,0.00,,,0.00,Wunderground v.1.15,2013-05-25 21:08:00,
2013-05-25 17:09:00,74.9,38.7,30.09,East,93,0.0,2.0,27,0.00,,,0.00,Wunderground v.1.15,2013-05-25 21:09:00,
2013-05-25 17:11:00,74.7,38.5,30.09,WNW,301,0.0,1.0,27,0.00,,,0.00,Wunderground v.1.15,2013-05-25 21:11:00,
2013-05-25 17:15:00,74.9,37.7,30.09,WNW,282,0.0,1.0,26,0.00,,,0.00,Wunderground v.1.15,2013-05-25 21:15:00,
2013-05-25 17:16:00,74.9,37.7,30.09,WNW,282,1.0,1.0,26,0.00,,,0.00,Wunderground v.1.15,2013-05-25 21:16:00,
2013-05-25 17:17:00,75.1,37.9,30.08,West,272,1.0,2.0,26,0.00,,,0.00,Wunderground v.1.15,2013-05-25 21:17:00,
2013-05-25 17:20:00,75.1,35.8,30.08,WSW,250,1.0,1.0,24,0.00,,,0.00,Wunderground v.1.15,2013-05-25 21:20:00,
2013-05-25 17:22:00,74.9,34.6,30.08,SSE,164,1.0,1.0,23,0.00,,,0.00,Wunderground v.1.15,2013-05-25 21:22:00,
2013-05-25 17:23:00,74.9,34.6,30.08,WSW,243,1.0,3.0,23,0.00,,,0.00,Wunderground v.1.15,2013-05-25 21:23:00,
2013-05-25 17:24:00,74.9,36.7,30.08,South,186,1.0,3.0,25,0.00,,,0.00,Wunderground v.1.15,2013-05-25 21:24:00,
2013-05-25 17:26:00,74.9,39.6,30.08,SW,232,1.0,3.0,28,0.00,,,0.00,Wunderground v.1.15,2013-05-25 21:26:00,
2013-05-25 17:27:00,74.9,38.7,30.08,NNE,18,1.0,3.0,27,0.00,,,0.00,Wunderground v.1.15,2013-05-25 21:27:00,
2013-05-25 17:28:00,74.6,39.3,30.08,North,6,1.0,3.0,28,0.00,,,0.00,Wunderground v.1.15,2013-05-25 21:28:00,
2013-05-25 17:29:00,74.4,36.3,30.08,NE,47,1.0,3.0,25,0.00,,,0.00,Wunderground v.1.15,2013-05-25 21:29:00,
2013-05-25 17:32:00,73.9,36.8,30.08,SSE,150,1.0,2.0,26,0.00,,,0.00,Wunderground v.1.15,2013-05-25 21:32:00,
2013-05-25 17:33:00,73.9,36.8,30.08,SSE,167,1.0,2.0,26,0.00,,,0.00,Wunderground v.1.15,2013-05-25 21:33:00,
2013-05-25 17:35:00,73.9,33.7,30.08,SSW,212,1.0,2.0,23,0.00,,,0.00,Wunderground v.1.15,2013-05-25 21:35:00,
2013-05-25 17:36:00,73.9,35.8,30.08,SW,215,1.0,2.0,25,0.00,,,0.00,Wunderground v.1.15,2013-05-25 21:36:00,
2013-05-25 17:40:00,73.9,38.7,30.08,SW,217,1.0,1.0,28,0.00,,,0.00,Wunderground v.1.15,2013-05-25 21:40:00,
2013-05-25 17:41:00,73.7,38.6,30.08,SW,217,1.0,1.0,28,0.00,,,0.00,Wunderground v.1.15,2013-05-25 21:41:00,
2013-05-25 17:42:00,73.7,35.7,30.08,SW,217,1.0,1.0,25,0.00,,,0.00,Wunderground v.1.15,2013-05-25 21:42:00,
2013-05-25 17:47:00,73.3,35.3,30.09,SW,219,0.0,1.0,25,0.00,,,0.00,Wunderground v.1.15,2013-05-25 21:47:00,
2013-05-25 17:49:00,73.3,38.2,30.09,SW,219,0.0,1.0,28,0.00,,,0.00,Wunderground v.1.15,2013-05-25 21:49:00,
2013-05-25 17:52:00,73.3,42.4,30.09,SW,219,0.0,1.0,33,0.00,,,0.00,Wunderground v.1.15,2013-05-25 21:52:00,
2013-05-25 17:54:00,73.3,40.0,30.09,SW,219,0.0,1.0,30,0.00,,,0.00,Wunderground v.1.15,2013-05-25 21:54:00,
2013-05-25 17:55:00,73.3,39.1,30.09,SW,219,0.0,1.0,29,0.00,,,0.00,Wunderground v.1.15,2013-05-25 21:55:00,
2013-05-25 17:56:00,73.2,38.1,30.09,SSE,152,0.0,1.0,28,0.00,,,0.00,Wunderground v.1.15,2013-05-25 21:56:00,
2013-05-25 17:58:00,73.2,38.1,30.09,SSE,154,0.0,1.0,28,0.00,,,0.00,Wunderground v.1.15,2013-05-25 21:58:00,
2013-05-25 17:59:00,73.0,38.0,30.09,SSE,154,0.0,1.0,28,0.00,,,0.00,Wunderground v.1.15,2013-05-25 21:59:00,
2013-05-25 18:01:00,73.0,38.0,30.09,SSE,154,0.0,1.0,28,0.00,,,0.00,Wunderground v.1.15,2013-05-25 22:01:00,
2013-05-25 18:02:00,73.0,38.0,30.09,SSE,158,0.0,1.0,28,0.00,,,0.00,Wunderground v.1.15,2013-05-25 22:02:00,
2013-05-25 18:05:00,72.7,38.6,30.09,WSW,256,0.0,1.0,29,0.00,,,0.00,Wunderground v.1.15,2013-05-25 22:05:00,
2013-05-25 18:07:00,72.3,37.4,30.09,WSW,256,0.0,1.0,28,0.00,,,0.00,Wunderground v.1.15,2013-05-25 22:07:00,
2013-05-25 18:08:00,72.1,34.3,30.09,WSW,256,0.0,1.0,25,0.00,,,0.00,Wunderground v.1.15,2013-05-25 22:08:00,
2013-05-25 18:09:00,72.1,34.3,30.09,WSW,254,0.0,1.0,25,0.00,,,0.00,Wunderground v.1.15,2013-05-25 22:09:00,
2013-05-25 18:12:00,72.0,36.2,30.09,West,261,0.0,1.0,27,0.00,,,0.00,Wunderground v.1.15,2013-05-25 22:12:00,
2013-05-25 18:14:00,71.8,35.0,30.09,ESE,107,0.0,1.0,26,0.00,,,0.00,Wunderground v.1.15,2013-05-25 22:14:00,
2013-05-25 18:15:00,71.8,35.0,30.09,East,92,0.0,1.0,26,0.00,,,0.00,Wunderground v.1.15,2013-05-25 22:15:00,
2013-05-25 18:16:00,71.8,35.0,30.09,East,92,0.0,1.0,26,0.00,,,0.00,Wunderground v.1.15,2013-05-25 22:16:00,
2013-05-25 18:19:00,71.8,36.0,30.09,East,92,0.0,1.0,27,0.00,,,0.00,Wunderground v.1.15,2013-05-25 22:19:00,
2013-05-25 18:24:00,71.5,35.7,30.09,ENE,64,0.0,1.0,27,0.00,,,0.00,Wunderground v.1.15,2013-05-25 22:24:00,
2013-05-25 18:25:00,71.3,38.2,30.09,ENE,64,0.0,1.0,30,0.00,,,0.00,Wunderground v.1.15,2013-05-25 22:25:00,
2013-05-25 18:27:00,71.3,38.2,30.09,East,88,0.0,1.0,30,0.00,,,0.00,Wunderground v.1.15,2013-05-25 22:27:00,
2013-05-25 18:28:00,71.1,38.1,30.09,East,88,0.0,1.0,30,0.00,,,0.00,Wunderground v.1.15,2013-05-25 22:28:00,
2013-05-25 18:30:00,71.1,33.5,30.09,WSW,247,0.0,3.0,25,0.00,,,0.00,Wunderground v.1.15,2013-05-25 22:30:00,
2013-05-25 18:32:00,70.9,31.2,30.09,SW,232,1.0,3.0,23,0.00,,,0.00,Wunderground v.1.15,2013-05-25 22:32:00,
2013-05-25 18:34:00,70.9,36.1,30.09,SSW,212,1.0,3.0,28,0.00,,,0.00,Wunderground v.1.15,2013-05-25 22:34:00,
2013-05-25 18:35:00,70.9,39.6,30.09,SSW,203,1.0,3.0,32,0.00,,,0.00,Wunderground v.1.15,2013-05-25 22:35:00,
2013-05-25 18:37:00,70.6,35.9,30.09,WSW,250,1.0,3.0,28,0.00,,,0.00,Wunderground v.1.15,2013-05-25 22:37:00,
2013-05-25 18:38:00,70.6,35.9,30.09,WSW,250,1.0,3.0,28,0.00,,,0.00,Wunderground v.1.15,2013-05-25 22:38:00,
2013-05-25 18:39:00,70.6,35.9,30.09,WSW,250,1.0,3.0,28,0.00,,,0.00,Wunderground v.1.15,2013-05-25 22:39:00,
2013-05-25 18:41:00,70.3,38.2,30.09,WSW,250,0.0,1.0,31,0.00,,,0.00,Wunderground v.1.15,2013-05-25 22:41:00,
2013-05-25 18:42:00,70.3,35.6,30.09,WSW,250,0.0,1.0,28,0.00,,,0.00,Wunderground v.1.15,2013-05-25 22:42:00,
2013-05-25 18:45:00,69.9,41.0,30.09,WSW,250,0.0,1.0,35,0.00,,,0.00,Wunderground v.1.15,2013-05-25 22:45:00,
2013-05-25 18:47:00,69.6,37.6,30.10,WSW,258,0.0,1.0,31,0.00,,,0.00,Wunderground v.1.15,2013-05-25 22:47:00,
2013-05-25 18:49:00,69.4,42.0,30.10,WSW,257,0.0,1.0,37,0.00,,,0.00,Wunderground v.1.15,2013-05-25 22:49:00,
2013-05-25 18:51:00,69.1,41.7,30.10,WSW,257,0.0,1.0,37,0.00,,,0.00,Wunderground v.1.15,2013-05-25 22:51:00,
2013-05-25 18:52:00,69.1,41.7,30.10,WSW,257,0.0,1.0,37,0.00,,,0.00,Wunderground v.1.15,2013-05-25 22:52:00,
2013-05-25 18:53:00,68.9,41.5,30.10,WSW,257,0.0,1.0,37,0.00,,,0.00,Wunderground v.1.15,2013-05-25 22:53:00,
2013-05-25 18:57:00,68.4,38.2,30.10,WSW,257,0.0,1.0,33,0.00,,,0.00,Wunderground v.1.15,2013-05-25 22:57:00,
2013-05-25 18:59:00,68.1,38.7,30.10,WSW,257,0.0,1.0,34,0.00,,,0.00,Wunderground v.1.15,2013-05-25 22:59:00,
2013-05-25 19:03:00,67.6,43.1,30.10,WSW,257,0.0,1.0,41,0.00,,,0.00,Wunderground v.1.15,2013-05-25 23:03:00,
2013-05-25 19:06:00,67.3,45.2,30.10,WSW,257,0.0,1.0,45,0.00,,,0.00,Wunderground v.1.15,2013-05-25 23:06:00,
2013-05-25 19:07:00,67.1,45.6,30.10,WSW,257,0.0,1.0,46,0.00,,,0.00,Wunderground v.1.15,2013-05-25 23:07:00,
2013-05-25 19:08:00,66.9,46.6,30.10,WSW,257,0.0,1.0,48,0.00,,,0.00,Wunderground v.1.15,2013-05-25 23:08:00,
2013-05-25 19:11:00,66.6,48.4,30.10,WSW,257,0.0,1.0,52,0.00,,,0.00,Wunderground v.1.15,2013-05-25 23:11:00,
2013-05-25 19:13:00,66.4,48.7,30.10,WSW,257,0.0,1.0,53,0.00,,,0.00,Wunderground v.1.15,2013-05-25 23:13:00,
2013-05-25 19:14:00,66.4,46.7,30.10,WSW,257,0.0,1.0,49,0.00,,,0.00,Wunderground v.1.15,2013-05-25 23:14:00,
2013-05-25 19:15:00,66.3,46.6,30.10,WSW,257,0.0,1.0,49,0.00,,,0.00,Wunderground v.1.15,2013-05-25 23:15:00,
2013-05-25 19:16:00,66.3,46.6,30.10,WSW,257,0.0,1.0,49,0.00,,,0.00,Wunderground v.1.15,2013-05-25 23:16:00,
2013-05-25 19:19:00,66.0,36.1,30.11,East,88,0.0,1.0,33,0.00,,,0.00,Wunderground v.1.15,2013-05-25 23:19:00,
2013-05-25 19:23:00,66.4,35.6,30.11,SSE,161,0.0,1.0,32,0.00,,,0.00,Wunderground v.1.15,2013-05-25 23:23:00,
2013-05-25 19:25:00,66.3,35.5,30.11,East,93,1.0,4.0,32,0.00,,,0.00,Wunderground v.1.15,2013-05-25 23:25:00,
2013-05-25 19:26:00,66.1,35.4,30.11,East,93,1.0,4.0,32,0.00,,,0.00,Wunderground v.1.15,2013-05-25 23:26:00,
2013-05-25 19:27:00,66.1,32.0,30.11,East,93,0.0,4.0,28,0.00,,,0.00,Wunderground v.1.15,2013-05-25 23:27:00,
2013-05-25 19:30:00,66.1,36.1,30.11,SE,141,0.0,1.0,33,0.00,,,0.00,Wunderground v.1.15,2013-05-25 23:30:00,
2013-05-25 19:31:00,66.1,36.1,30.11,SE,141,0.0,1.0,33,0.00,,,0.00,Wunderground v.1.15,2013-05-25 23:31:00,
2013-05-25 19:33:00,66.3,29.4,30.12,SE,134,0.0,1.0,25,0.00,,,0.00,Wunderground v.1.15,2013-05-25 23:33:00,
2013-05-25 19:36:00,66.1,32.0,30.12,North,356,0.0,1.0,28,0.00,,,0.00,Wunderground v.1.15,2013-05-25 23:36:00,
2013-05-25 19:37:00,66.3,29.4,30.12,North,357,0.0,1.0,25,0.00,,,0.00,Wunderground v.1.15,2013-05-25 23:37:00,
2013-05-25 19:40:00,66.1,31.1,30.12,North,357,0.0,1.0,27,0.00,,,0.00,Wunderground v.1.15,2013-05-25 23:40:00,
2013-05-25 19:42:00,66.1,31.1,30.12,North,357,0.0,1.0,27,0.00,,,0.00,Wunderground v.1.15,2013-05-25 23:42:00,
2013-05-25 19:44:00,66.0,31.0,30.12,North,357,0.0,1.0,27,0.00,,,0.00,Wunderground v.1.15,2013-05-25 23:44:00,
2013-05-25 19:45:00,65.8,30.9,30.12,North,357,0.0,1.0,27,0.00,,,0.00,Wunderground v.1.15,2013-05-25 23:45:00,
2013-05-25 19:46:00,65.8,30.9,30.12,North,357,0.0,1.0,27,0.00,,,0.00,Wunderground v.1.15,2013-05-25 23:46:00,
2013-05-25 19:49:00,65.5,30.6,30.11,North,354,0.0,1.0,27,0.00,,,0.00,Wunderground v.1.15,2013-05-25 23:49:00,
2013-05-25 19:50:00,65.5,32.4,30.11,North,354,0.0,1.0,29,0.00,,,0.00,Wunderground v.1.15,2013-05-25 23:50:00,
2013-05-25 19:51:00,65.3,33.9,30.11,North,354,0.0,1.0,31,0.00,,,0.00,Wunderground v.1.15,2013-05-25 23:51:00,
2013-05-25 19:53:00,65.3,33.9,30.11,North,354,0.0,1.0,31,0.00,,,0.00,Wunderground v.1.15,2013-05-25 23:53:00,
2013-05-25 19:54:00,65.2,43.3,30.11,North,354,0.0,1.0,45,0.00,,,0.00,Wunderground v.1.15,2013-05-25 23:54:00,
2013-05-25 19:55:00,65.2,43.3,30.11,North,354,0.0,1.0,45,0.00,,,0.00,Wunderground v.1.15,2013-05-25 23:55:00,
2013-05-25 19:57:00,65.0,43.1,30.11,North,354,0.0,1.0,45,0.00,,,0.00,Wunderground v.1.15,2013-05-25 23:57:00,
2013-05-25 19:58:00,64.8,45.2,30.11,North,354,0.0,1.0,49,0.00,,,0.00,Wunderground v.1.15,2013-05-25 23:58:00,
2013-05-25 20:00:00,64.7,45.6,30.11,North,354,0.0,1.0,50,0.00,,,0.00,Wunderground v.1.15,2013-05-26 00:00:00,
2013-05-25 20:05:00,64.0,41.6,30.12,North,354,0.0,1.0,44,0.00,,,0.00,Wunderground v.1.15,2013-05-26 00:05:00,
2013-05-25 20:06:00,63.9,41.5,30.12,North,354,0.0,1.0,44,0.00,,,0.00,Wunderground v.1.15,2013-05-26 00:06:00,
2013-05-25 20:07:00,63.9,41.5,30.12,North,354,0.0,1.0,44,0.00,,,0.00,Wunderground v.1.15,2013-05-26 00:07:00,
2013-05-25 20:10:00,63.4,39.3,30.12,North,354,0.0,1.0,41,0.00,,,0.00,Wunderground v.1.15,2013-05-26 00:10:00,
2013-05-25 20:11:00,63.4,38.6,30.12,North,354,0.0,1.0,40,0.00,,,0.00,Wunderground v.1.15,2013-05-26 00:11:00,
2013-05-25 20:13:00,63.1,37.7,30.12,North,354,0.0,1.0,39,0.00,,,0.00,Wunderground v.1.15,2013-05-26 00:13:00,
2013-05-25 20:14:00,63.1,41.4,30.12,North,354,0.0,1.0,45,0.00,,,0.00,Wunderground v.1.15,2013-05-26 00:14:00,
2013-05-25 20:16:00,62.7,39.3,30.12,North,354,0.0,1.0,42,0.00,,,0.00,Wunderground v.1.15,2013-05-26 00:16:00,
2013-05-25 20:19:00,62.3,38.3,30.12,North,354,0.0,1.0,41,0.00,,,0.00,Wunderground v.1.15,2013-05-26 00:19:00,
2013-05-25 20:20:00,62.3,38.3,30.12,North,354,0.0,1.0,41,0.00,,,0.00,Wunderground v.1.15,2013-05-26 00:20:00,
2013-05-25 20:21:00,62.3,38.3,30.12,North,354,0.0,1.0,41,0.00,,,0.00,Wunderground v.1.15,2013-05-26 00:21:00,
2013-05-25 20:22:00,62.0,38.0,30.12,North,354,0.0,1.0,41,0.00,,,0.00,Wunderground v.1.15,2013-05-26 00:22:00,
2013-05-25 20:25:00,61.6,37.7,30.12,North,354,0.0,1.0,41,0.00,,,0.00,Wunderground v.1.15,2013-05-26 00:25:00,
2013-05-25 20:27:00,61.5,39.4,30.12,North,354,0.0,1.0,44,0.00,,,0.00,Wunderground v.1.15,2013-05-26 00:27:00,
2013-05-25 20:28:00,61.3,41.4,30.12,North,354,0.0,1.0,48,0.00,,,0.00,Wunderground v.1.15,2013-05-26 00:28:00,
2013-05-25 20:30:00,60.9,41.1,30.12,North,354,0.0,1.0,48,0.00,,,0.00,Wunderground v.1.15,2013-05-26 00:30:00,
2013-05-25 20:33:00,60.4,38.9,30.13,North,354,0.0,1.0,45,0.00,,,0.00,Wunderground v.1.15,2013-05-26 00:33:00,
2013-05-25 20:36:00,59.9,40.1,30.13,North,354,0.0,1.0,48,0.00,,,0.00,Wunderground v.1.15,2013-05-26 00:36:00,
2013-05-25 20:37:00,59.8,45.0,30.13,North,354,0.0,1.0,58,0.00,,,0.00,Wunderground v.1.15,2013-05-26 00:37:00,
2013-05-25 20:38:00,59.6,43.4,30.13,North,354,0.0,1.0,55,0.00,,,0.00,Wunderground v.1.15,2013-05-26 00:38:00,
2013-05-25 20:41:00,59.2,42.6,30.13,North,354,0.0,1.0,54,0.00,,,0.00,Wunderground v.1.15,2013-05-26 00:41:00,